GEFSSGP_prec_meanprecacc_108.txt.gz
Total_Precipitation_Accumulation
1.51 1.33 1.81 2.50 2.25 1.64 1.22 0.81 0.52 0.42 0.28 0.20 0.12 0.12 0.25 0.55 0.79 1.03 0.82 0.68 0.50 0.38 0.31 0.41 0.58 0.52 0.48 0.47 0.42 0.39 0.41 0.39 0.34 0.36 0.34 0.34 0.31 0.29 0.28 0.26 0.24 0.23 0.23 0.23 0.29 0.37 0.42 0.44 0.53
1.14 1.51 2.06 2.63 2.05 1.48 1.30 0.82 0.52 0.36 0.18 0.11 0.07 0.07 0.16 0.23 0.20 0.45 0.83 0.93 0.47 0.32 0.30 0.41 0.59 0.59 0.57 0.53 0.50 0.52 0.52 0.46 0.45 0.48 0.44 0.43 0.39 0.33 0.31 0.31 0.29 0.28 0.29 0.30 0.33 0.39 0.47 0.51 0.54
1.35 2.13 2.50 2.25 1.52 1.41 1.28 0.79 0.46 0.26 0.12 0.08 0.06 0.05 0.10 0.22 0.27 0.51 0.86 0.72 0.45 0.34 0.36 0.55 0.71 0.69 0.67 0.61 0.60 0.65 0.62 0.57 0.55 0.54 0.53 0.54 0.49 0.46 0.39 0.36 0.36 0.36 0.40 0.44 0.42 0.45 0.51 0.57 0.58
1.44 2.25 2.25 1.69 1.44 1.23 0.88 0.60 0.36 0.28 0.18 0.06 0.05 0.08 0.13 0.26 0.40 0.56 0.63 0.55 0.50 0.47 0.42 0.54 0.68 0.73 0.72 0.61 0.62 0.70 0.65 0.61 0.56 0.50 0.52 0.53 0.51 0.51 0.45 0.46 0.48 0.45 0.48 0.54 0.55 0.58 0.59 0.60 0.61
1.80 2.18 1.86 1.45 1.36 1.04 0.72 0.51 0.30 0.28 0.24 0.09 0.05 0.16 0.23 0.35 0.46 0.53 0.56 0.49 0.48 0.46 0.37 0.42 0.65 0.70 0.68 0.65 0.69 0.77 0.70 0.64 0.55 0.50 0.54 0.56 0.55 0.54 0.52 0.54 0.54 0.52 0.50 0.54 0.58 0.61 0.61 0.58 0.60
1.90 1.88 1.63 1.39 1.35 1.13 0.83 0.53 0.33 0.29 0.21 0.11 0.10 0.24 0.31 0.40 0.56 0.62 0.65 0.73 0.72 0.69 0.55 0.50 0.67 0.71 0.69 0.72 0.77 0.84 0.84 0.72 0.60 0.55 0.56 0.54 0.55 0.55 0.56 0.57 0.58 0.57 0.56 0.59 0.58 0.58 0.57 0.51 0.51
1.80 1.70 1.40 1.08 1.15 1.32 0.96 0.56 0.39 0.36 0.29 0.20 0.14 0.29 0.39 0.47 0.55 0.67 0.82 0.95 1.03 1.05 0.94 0.83 0.77 0.71 0.73 0.80 0.78 0.93 1.07 0.92 0.73 0.65 0.65 0.58 0.53 0.53 0.53 0.53 0.59 0.59 0.61 0.59 0.58 0.61 0.57 0.52 0.49
1.47 1.37 1.12 1.05 1.15 1.36 0.89 0.57 0.42 0.39 0.31 0.18 0.16 0.28 0.43 0.41 0.50 0.67 0.84 0.93 0.97 1.02 0.94 0.94 1.01 1.00 0.99 1.00 1.07 1.18 1.50 1.38 1.00 0.81 0.69 0.65 0.57 0.55 0.58 0.55 0.58 0.64 0.66 0.67 0.70 0.68 0.65 0.64 0.59
1.46 1.49 1.34 1.46 1.45 1.23 0.76 0.61 0.47 0.33 0.30 0.19 0.16 0.24 0.30 0.32 0.44 0.52 0.62 0.69 0.74 0.77 0.81 0.87 0.93 0.94 0.97 0.96 1.13 1.38 1.66 1.73 1.38 1.10 0.95 0.78 0.54 0.57 0.65 0.58 0.68 0.73 0.75 0.78 0.84 0.83 0.77 0.75 0.66
1.42 1.39 1.24 1.25 1.04 0.75 0.61 0.54 0.45 0.35 0.35 0.29 0.27 0.28 0.30 0.33 0.44 0.50 0.55 0.63 0.63 0.59 0.57 0.58 0.62 0.67 0.72 0.77 1.04 1.27 1.33 1.53 1.31 1.28 1.13 0.98 0.92 0.87 0.69 0.64 0.79 0.85 0.85 0.84 0.89 0.94 0.79 0.66 0.52
1.24 1.10 0.95 0.91 0.67 0.47 0.41 0.38 0.34 0.28 0.30 0.28 0.30 0.30 0.34 0.37 0.43 0.46 0.49 0.51 0.53 0.55 0.52 0.45 0.46 0.48 0.54 0.67 0.88 1.10 1.23 1.40 1.41 1.39 1.33 1.32 1.27 0.94 0.77 0.84 0.88 0.88 0.88 0.77 0.82 0.82 0.63 0.50 0.46
1.18 0.92 0.79 0.70 0.48 0.42 0.37 0.31 0.25 0.18 0.15 0.14 0.18 0.23 0.31 0.38 0.39 0.37 0.40 0.44 0.45 0.50 0.56 0.49 0.37 0.37 0.39 0.47 0.66 0.86 1.07 1.26 1.31 1.14 1.06 1.19 1.20 1.01 0.88 1.00 1.08 1.05 1.00 0.99 1.00 0.90 0.74 0.55 0.49
1.13 1.03 0.81 0.66 0.46 0.42 0.33 0.27 0.20 0.14 0.10 0.11 0.16 0.25 0.34 0.41 0.42 0.42 0.38 0.40 0.41 0.47 0.54 0.56 0.48 0.40 0.39 0.44 0.51 0.58 0.87 1.05 1.20 1.25 1.03 1.15 1.19 1.11 0.98 0.92 1.09 1.05 1.03 1.04 1.04 1.00 0.88 0.75 0.60
1.06 0.90 0.61 0.54 0.45 0.40 0.33 0.27 0.22 0.16 0.15 0.12 0.15 0.24 0.31 0.40 0.45 0.47 0.43 0.39 0.36 0.40 0.47 0.52 0.55 0.54 0.50 0.49 0.51 0.51 0.56 0.67 0.79 0.76 0.73 0.92 1.03 1.00 1.00 0.86 0.92 0.98 1.08 1.24 1.23 1.05 0.96 0.86 0.73
0.79 0.72 0.63 0.49 0.43 0.38 0.36 0.34 0.23 0.18 0.19 0.19 0.16 0.20 0.28 0.34 0.36 0.39 0.39 0.36 0.35 0.39 0.42 0.47 0.54 0.61 0.62 0.63 0.71 0.64 0.59 0.64 0.64 0.60 0.61 0.72 0.82 0.84 0.97 0.94 0.90 0.91 1.09 1.25 1.33 1.22 1.12 0.93 0.83
0.67 0.68 0.80 0.60 0.52 0.47 0.48 0.38 0.18 0.20 0.17 0.17 0.14 0.13 0.18 0.25 0.28 0.31 0.34 0.36 0.36 0.37 0.37 0.39 0.43 0.48 0.53 0.60 0.68 0.73 0.73 0.75 0.71 0.74 0.70 0.66 0.79 0.91 1.03 1.05 0.96 0.95 1.12 1.27 1.36 1.39 1.35 1.20 1.07
0.66 0.59 0.57 0.52 0.45 0.41 0.36 0.26 0.13 0.13 0.11 0.10 0.08 0.06 0.08 0.11 0.17 0.22 0.25 0.30 0.35 0.36 0.32 0.31 0.32 0.32 0.35 0.42 0.54 0.65 0.72 0.80 0.86 0.88 0.86 0.84 0.87 0.91 1.05 1.19 1.19 1.18 1.24 1.28 1.29 1.31 1.25 1.21 1.16
0.55 0.41 0.34 0.34 0.25 0.29 0.25 0.17 0.12 0.08 0.06 0.04 0.04 0.03 0.03 0.04 0.06 0.11 0.16 0.23 0.28 0.30 0.30 0.30 0.31 0.30 0.27 0.31 0.45 0.56 0.63 0.71 0.87 0.94 1.00 1.27 1.35 1.14 1.10 1.20 1.22 1.24 1.35 1.35 1.45 1.53 1.37 1.22 1.25
0.40 0.25 0.19 0.19 0.15 0.13 0.11 0.08 0.06 0.04 0.02 0.01 0.01 0.02 0.02 0.01 0.02 0.02 0.04 0.08 0.15 0.15 0.15 0.18 0.24 0.31 0.29 0.26 0.33 0.44 0.53 0.67 0.81 0.97 1.04 1.27 1.37 1.28 1.29 1.29 1.27 1.26 1.29 1.33 1.49 1.71 1.59 1.40 1.31
0.33 0.22 0.13 0.13 0.11 0.07 0.04 0.04 0.04 0.03 0.02 0.01 0.01 0.01 0.02 0.02 0.02 0.01 0.02 0.02 0.03 0.05 0.07 0.11 0.15 0.24 0.32 0.36 0.41 0.53 0.71 0.83 0.93 1.06 1.13 1.24 1.26 1.25 1.18 1.32 1.40 1.34 1.40 1.46 1.60 1.75 1.80 1.62 1.46
0.20 0.19 0.14 0.11 0.09 0.05 0.03 0.03 0.03 0.03 0.03 0.03 0.03 0.03 0.03 0.03 0.03 0.02 0.02 0.02 0.02 0.03 0.06 0.11 0.19 0.33 0.50 0.66 0.88 1.13 1.41 1.53 1.42 1.27 1.34 1.47 1.53 1.49 1.42 1.48 1.61 1.52 1.52 1.56 1.60 1.62 1.90 1.95 1.76
0.15 0.10 0.08 0.06 0.06 0.04 0.02 0.02 0.03 0.06 0.07 0.08 0.09 0.09 0.09 0.08 0.07 0.06 0.05 0.05 0.07 0.11 0.18 0.28 0.40 0.57 0.74 0.95 1.17 1.43 1.66 1.82 1.84 1.86 1.89 1.87 1.82 1.70 1.58 1.58 1.62 1.63 1.67 1.59 1.49 1.61 1.91 2.23 2.16
0.13 0.09 0.04 0.03 0.03 0.02 0.01 0.02 0.05 0.12 0.18 0.23 0.25 0.26 0.23 0.19 0.19 0.18 0.16 0.16 0.18 0.28 0.41 0.53 0.76 0.93 1.06 1.13 1.23 1.45 1.56 1.63 1.74 1.88 1.93 1.93 1.84 1.71 1.56 1.51 1.54 1.60 1.68 1.67 1.71 1.83 2.08 2.29 2.42
0.11 0.07 0.03 0.02 0.02 0.02 0.01 0.05 0.15 0.24 0.32 0.40 0.40 0.37 0.33 0.26 0.24 0.27 0.30 0.31 0.35 0.57 0.81 0.96 1.07 1.16 1.16 1.14 1.16 1.30 1.43 1.52 1.60 1.73 1.79 1.73 1.59 1.54 1.51 1.49 1.45 1.39 1.46 1.56 1.71 1.94 2.05 2.19 2.36
0.06 0.05 0.06 0.06 0.05 0.05 0.04 0.12 0.26 0.28 0.27 0.31 0.34 0.33 0.29 0.22 0.19 0.24 0.33 0.46 0.65 0.90 1.14 1.28 1.28 1.18 1.04 1.02 1.09 1.15 1.30 1.44 1.48 1.49 1.51 1.45 1.38 1.34 1.36 1.37 1.31 1.21 1.20 1.31 1.48 1.68 1.72 1.83 1.99
0.03 0.03 0.08 0.10 0.06 0.07 0.11 0.27 0.39 0.30 0.21 0.17 0.18 0.18 0.20 0.25 0.31 0.32 0.38 0.57 0.85 1.12 1.37 1.64 1.62 1.38 1.16 1.10 1.17 1.18 1.27 1.33 1.31 1.25 1.26 1.26 1.22 1.17 1.11 1.14 1.14 1.11 1.09 1.11 1.20 1.30 1.36 1.45 1.63
0.02 0.02 0.04 0.09 0.06 0.06 0.12 0.27 0.29 0.20 0.15 0.13 0.15 0.18 0.24 0.31 0.41 0.49 0.61 0.71 0.92 1.14 1.48 1.76 1.82 1.62 1.46 1.37 1.31 1.31 1.21 1.12 1.05 0.97 0.96 0.99 1.00 0.94 0.90 0.97 1.06 1.12 1.04 0.97 1.03 1.08 1.12 1.23 1.33
0.01 0.03 0.06 0.13 0.14 0.12 0.15 0.24 0.20 0.11 0.10 0.13 0.19 0.24 0.29 0.37 0.43 0.58 0.84 1.05 1.28 1.23 1.37 1.61 1.54 1.48 1.46 1.47 1.46 1.35 1.20 1.07 1.03 0.95 0.92 0.89 0.94 0.85 0.85 0.88 0.89 0.90 0.88 0.91 0.99 1.07 1.16 1.15 1.19
0.03 0.05 0.06 0.12 0.17 0.20 0.29 0.34 0.22 0.18 0.20 0.26 0.32 0.35 0.38 0.46 0.51 0.65 0.82 0.97 1.16 1.27 1.29 1.33 1.32 1.33 1.29 1.22 1.18 1.06 0.86 0.75 0.76 0.77 0.73 0.68 0.71 0.66 0.68 0.66 0.70 0.81 0.80 0.80 0.88 0.94 0.96 1.03 1.13
0.10 0.12 0.12 0.20 0.27 0.31 0.45 0.51 0.33 0.33 0.38 0.45 0.52 0.54 0.58 0.59 0.62 0.72 0.80 0.95 1.04 1.05 1.10 1.17 1.10 1.09 1.04 0.93 0.84 0.72 0.57 0.51 0.56 0.57 0.52 0.44 0.47 0.44 0.51 0.55 0.54 0.70 0.86 0.88 0.91 0.92 0.87 0.91 0.96

GEFSSGP_prec_meanprecacc_114.txt.gz
Total_Precipitation_Accumulation
1.55 1.38 1.94 2.71 2.51 1.87 1.41 0.95 0.60 0.49 0.32 0.22 0.13 0.12 0.27 0.59 0.87 1.13 0.88 0.71 0.51 0.39 0.32 0.42 0.59 0.55 0.51 0.50 0.48 0.43 0.45 0.44 0.39 0.40 0.38 0.36 0.33 0.31 0.30 0.27 0.26 0.25 0.25 0.25 0.31 0.40 0.46 0.48 0.56
1.19 1.60 2.21 2.89 2.33 1.72 1.52 0.97 0.63 0.42 0.21 0.12 0.07 0.07 0.17 0.24 0.21 0.47 0.86 0.94 0.47 0.32 0.31 0.42 0.60 0.61 0.59 0.56 0.54 0.56 0.57 0.51 0.50 0.51 0.47 0.45 0.41 0.36 0.33 0.32 0.30 0.29 0.30 0.33 0.35 0.41 0.50 0.55 0.57
1.37 2.18 2.64 2.48 1.76 1.65 1.53 0.93 0.52 0.28 0.13 0.08 0.06 0.05 0.11 0.23 0.28 0.54 0.88 0.73 0.45 0.34 0.36 0.56 0.72 0.70 0.69 0.62 0.62 0.68 0.65 0.59 0.57 0.56 0.55 0.55 0.50 0.48 0.40 0.37 0.37 0.38 0.42 0.46 0.44 0.47 0.53 0.59 0.61
1.48 2.31 2.37 1.89 1.66 1.37 0.99 0.66 0.37 0.28 0.18 0.06 0.05 0.08 0.13 0.27 0.41 0.56 0.63 0.55 0.50 0.47 0.43 0.55 0.68 0.74 0.73 0.62 0.64 0.72 0.67 0.63 0.56 0.51 0.53 0.53 0.51 0.52 0.46 0.47 0.48 0.46 0.50 0.56 0.58 0.61 0.63 0.63 0.64
1.87 2.29 2.02 1.63 1.53 1.12 0.75 0.52 0.31 0.29 0.25 0.09 0.05 0.18 0.24 0.37 0.46 0.53 0.57 0.50 0.48 0.47 0.38 0.43 0.65 0.70 0.69 0.66 0.70 0.80 0.74 0.67 0.55 0.50 0.54 0.56 0.55 0.54 0.52 0.54 0.55 0.53 0.51 0.56 0.61 0.65 0.65 0.61 0.64
2.02 2.01 1.81 1.58 1.48 1.17 0.84 0.53 0.34 0.31 0.23 0.11 0.10 0.26 0.34 0.43 0.57 0.63 0.65 0.73 0.73 0.69 0.55 0.51 0.67 0.72 0.70 0.73 0.77 0.85 0.85 0.73 0.60 0.56 0.56 0.54 0.55 0.55 0.56 0.57 0.58 0.58 0.56 0.60 0.62 0.62 0.61 0.54 0.55
1.94 1.86 1.58 1.24 1.28 1.42 0.98 0.56 0.41 0.40 0.31 0.21 0.14 0.31 0.42 0.51 0.58 0.69 0.83 0.95 1.03 1.05 0.94 0.84 0.78 0.71 0.74 0.80 0.79 0.94 1.07 0.92 0.73 0.65 0.65 0.58 0.53 0.53 0.53 0.53 0.59 0.60 0.61 0.61 0.60 0.63 0.61 0.56 0.54
1.55 1.49 1.27 1.19 1.30 1.48 0.91 0.57 0.43 0.41 0.33 0.19 0.16 0.29 0.46 0.45 0.51 0.69 0.86 0.93 0.98 1.03 0.95 0.94 1.02 1.00 0.99 1.00 1.07 1.19 1.50 1.38 1.00 0.81 0.69 0.65 0.57 0.55 0.58 0.56 0.58 0.64 0.66 0.67 0.70 0.69 0.68 0.68 0.63
1.51 1.62 1.54 1.62 1.59 1.34 0.79 0.61 0.47 0.33 0.30 0.20 0.16 0.24 0.30 0.33 0.45 0.54 0.63 0.69 0.74 0.77 0.82 0.87 0.93 0.95 0.98 0.96 1.13 1.38 1.66 1.73 1.38 1.10 0.95 0.78 0.55 0.57 0.65 0.59 0.68 0.74 0.76 0.79 0.85 0.84 0.77 0.77 0.68
1.51 1.55 1.41 1.35 1.10 0.80 0.63 0.55 0.46 0.36 0.36 0.30 0.27 0.28 0.30 0.34 0.46 0.52 0.56 0.63 0.63 0.59 0.57 0.58 0.62 0.67 0.72 0.77 1.04 1.27 1.33 1.53 1.31 1.28 1.13 0.98 0.92 0.87 0.69 0.64 0.79 0.85 0.86 0.85 0.90 0.95 0.80 0.67 0.55
1.33 1.20 1.01 0.97 0.69 0.48 0.42 0.39 0.34 0.30 0.34 0.29 0.31 0.30 0.35 0.37 0.44 0.48 0.50 0.52 0.53 0.55 0.52 0.45 0.46 0.48 0.54 0.67 0.88 1.10 1.23 1.40 1.41 1.39 1.33 1.32 1.27 0.94 0.78 0.85 0.88 0.89 0.88 0.79 0.83 0.83 0.64 0.51 0.47
1.25 0.95 0.81 0.73 0.49 0.42 0.37 0.32 0.25 0.20 0.18 0.14 0.18 0.23 0.31 0.39 0.40 0.39 0.41 0.44 0.45 0.50 0.56 0.49 0.37 0.37 0.39 0.47 0.66 0.86 1.07 1.26 1.31 1.14 1.06 1.19 1.20 1.01 0.88 1.00 1.09 1.06 1.01 1.00 1.01 0.92 0.75 0.56 0.49
1.18 1.06 0.81 0.66 0.47 0.43 0.33 0.27 0.21 0.15 0.11 0.11 0.16 0.25 0.34 0.41 0.43 0.42 0.38 0.40 0.41 0.47 0.54 0.56 0.48 0.40 0.39 0.44 0.51 0.58 0.87 1.05 1.20 1.25 1.03 1.15 1.19 1.12 0.98 0.93 1.10 1.06 1.04 1.05 1.05 1.01 0.88 0.76 0.61
1.09 0.92 0.62 0.54 0.45 0.41 0.34 0.27 0.22 0.17 0.15 0.12 0.15 0.24 0.31 0.40 0.45 0.47 0.43 0.39 0.36 0.40 0.47 0.52 0.55 0.54 0.50 0.49 0.51 0.51 0.56 0.67 0.79 0.76 0.73 0.92 1.04 1.00 1.00 0.87 0.92 0.99 1.10 1.25 1.23 1.06 0.98 0.88 0.74
0.81 0.75 0.66 0.50 0.43 0.38 0.38 0.37 0.23 0.18 0.19 0.19 0.17 0.21 0.29 0.34 0.36 0.39 0.39 0.36 0.35 0.39 0.42 0.47 0.54 0.61 0.62 0.63 0.71 0.64 0.59 0.64 0.64 0.60 0.61 0.72 0.83 0.85 0.97 0.94 0.91 0.92 1.10 1.27 1.33 1.23 1.14 0.95 0.86
0.70 0.74 0.88 0.62 0.53 0.47 0.51 0.46 0.19 0.20 0.18 0.17 0.15 0.15 0.19 0.25 0.29 0.31 0.34 0.36 0.36 0.37 0.37 0.39 0.43 0.48 0.53 0.60 0.68 0.73 0.73 0.75 0.71 0.74 0.70 0.66 0.79 0.91 1.03 1.06 0.97 0.95 1.12 1.28 1.37 1.42 1.39 1.24 1.11
0.71 0.69 0.66 0.55 0.45 0.41 0.40 0.32 0.15 0.13 0.11 0.10 0.09 0.08 0.09 0.11 0.17 0.22 0.25 0.30 0.35 0.36 0.32 0.31 0.32 0.32 0.35 0.42 0.54 0.65 0.72 0.80 0.86 0.88 0.86 0.84 0.88 0.92 1.06 1.20 1.20 1.19 1.25 1.29 1.30 1.35 1.31 1.28 1.23
0.59 0.46 0.40 0.37 0.26 0.30 0.27 0.20 0.13 0.09 0.06 0.04 0.04 0.04 0.04 0.04 0.07 0.11 0.16 0.23 0.28 0.30 0.30 0.30 0.31 0.30 0.27 0.31 0.45 0.56 0.63 0.71 0.87 0.94 1.01 1.27 1.36 1.14 1.10 1.21 1.23 1.25 1.38 1.38 1.48 1.59 1.44 1.29 1.33
0.42 0.29 0.24 0.22 0.15 0.14 0.13 0.10 0.08 0.05 0.03 0.02 0.02 0.03 0.03 0.02 0.02 0.02 0.04 0.08 0.15 0.15 0.15 0.18 0.24 0.31 0.29 0.26 0.33 0.44 0.53 0.67 0.81 0.97 1.04 1.27 1.37 1.28 1.29 1.30 1.29 1.29 1.32 1.37 1.52 1.76 1.65 1.48 1.39
0.36 0.28 0.20 0.15 0.12 0.08 0.06 0.05 0.05 0.04 0.03 0.02 0.02 0.02 0.02 0.02 0.02 0.02 0.02 0.03 0.05 0.08 0.08 0.11 0.15 0.24 0.32 0.36 0.41 0.53 0.71 0.83 0.93 1.06 1.13 1.24 1.26 1.25 1.18 1.33 1.42 1.35 1.42 1.49 1.63 1.81 1.86 1.69 1.55
0.24 0.25 0.18 0.13 0.10 0.06 0.05 0.05 0.04 0.04 0.04 0.03 0.03 0.03 0.03 0.04 0.04 0.04 0.03 0.03 0.03 0.04 0.06 0.11 0.19 0.33 0.50 0.66 0.88 1.13 1.41 1.53 1.42 1.27 1.34 1.47 1.53 1.49 1.42 1.48 1.62 1.54 1.54 1.58 1.63 1.66 1.96 2.02 1.86
0.22 0.14 0.10 0.07 0.08 0.06 0.04 0.07 0.05 0.06 0.08 0.09 0.09 0.09 0.09 0.08 0.07 0.06 0.05 0.06 0.08 0.12 0.18 0.28 0.41 0.57 0.74 0.95 1.17 1.43 1.66 1.82 1.84 1.86 1.89 1.87 1.82 1.70 1.59 1.58 1.62 1.64 1.68 1.61 1.51 1.64 1.96 2.29 2.24
0.17 0.11 0.05 0.04 0.05 0.04 0.03 0.04 0.07 0.12 0.18 0.23 0.25 0.26 0.23 0.19 0.19 0.18 0.16 0.16 0.18 0.29 0.41 0.53 0.76 0.93 1.07 1.13 1.23 1.45 1.56 1.63 1.74 1.88 1.93 1.93 1.84 1.71 1.56 1.51 1.54 1.60 1.69 1.68 1.72 1.86 2.12 2.34 2.47
0.12 0.08 0.06 0.05 0.05 0.05 0.04 0.07 0.17 0.25 0.32 0.40 0.40 0.37 0.33 0.26 0.24 0.27 0.30 0.31 0.35 0.57 0.81 0.96 1.07 1.16 1.16 1.14 1.16 1.30 1.43 1.52 1.60 1.73 1.79 1.73 1.59 1.54 1.51 1.49 1.45 1.40 1.47 1.57 1.73 1.96 2.07 2.23 2.41
0.07 0.08 0.10 0.11 0.09 0.08 0.05 0.13 0.28 0.29 0.27 0.31 0.34 0.33 0.29 0.22 0.19 0.24 0.33 0.46 0.65 0.90 1.14 1.28 1.28 1.18 1.04 1.02 1.09 1.15 1.30 1.44 1.48 1.49 1.51 1.45 1.38 1.34 1.36 1.37 1.31 1.21 1.20 1.31 1.48 1.69 1.75 1.86 2.04
0.06 0.06 0.12 0.16 0.12 0.09 0.12 0.28 0.39 0.31 0.21 0.17 0.18 0.18 0.20 0.25 0.31 0.32 0.38 0.57 0.85 1.12 1.37 1.64 1.62 1.38 1.16 1.10 1.17 1.18 1.27 1.33 1.31 1.25 1.26 1.26 1.22 1.17 1.11 1.14 1.14 1.11 1.10 1.12 1.21 1.31 1.38 1.48 1.65
0.04 0.05 0.08 0.13 0.09 0.07 0.13 0.27 0.29 0.20 0.15 0.13 0.15 0.18 0.24 0.31 0.41 0.49 0.61 0.71 0.92 1.14 1.48 1.76 1.82 1.62 1.46 1.37 1.31 1.31 1.21 1.12 1.05 0.97 0.96 0.99 1.00 0.94 0.90 0.97 1.06 1.12 1.04 0.98 1.04 1.10 1.14 1.25 1.36
0.03 0.05 0.09 0.16 0.16 0.14 0.16 0.24 0.20 0.11 0.10 0.13 0.19 0.24 0.29 0.37 0.43 0.58 0.84 1.05 1.28 1.23 1.37 1.61 1.54 1.48 1.46 1.47 1.46 1.35 1.20 1.07 1.03 0.95 0.92 0.89 0.94 0.85 0.85 0.88 0.89 0.90 0.88 0.91 1.00 1.09 1.17 1.18 1.22
0.04 0.06 0.09 0.14 0.18 0.21 0.29 0.34 0.22 0.18 0.20 0.26 0.32 0.35 0.38 0.46 0.51 0.65 0.82 0.97 1.16 1.27 1.29 1.33 1.32 1.33 1.29 1.22 1.18 1.06 0.86 0.75 0.76 0.77 0.73 0.68 0.71 0.66 0.68 0.66 0.70 0.81 0.80 0.80 0.89 0.95 0.98 1.07 1.16
0.10 0.13 0.14 0.21 0.27 0.31 0.45 0.51 0.33 0.33 0.38 0.45 0.52 0.54 0.58 0.59 0.62 0.72 0.80 0.95 1.04 1.05 1.10 1.17 1.10 1.09 1.04 0.93 0.84 0.72 0.57 0.51 0.56 0.57 0.52 0.44 0.47 0.44 0.51 0.55 0.54 0.70 0.86 0.88 0.91 0.92 0.89 0.94 0.98

GEFSSGP_prec_meanprecacc_120.txt.gz
Total_Precipitation_Accumulation
1.57 1.42 2.02 2.84 2.65 2.01 1.60 1.16 0.74 0.58 0.39 0.31 0.20 0.17 0.32 0.63 0.90 1.16 0.98 0.82 0.54 0.39 0.33 0.46 0.64 0.57 0.53 0.53 0.50 0.44 0.46 0.45 0.39 0.41 0.39 0.37 0.33 0.31 0.30 0.28 0.26 0.25 0.25 0.26 0.31 0.41 0.46 0.48 0.56
1.21 1.67 2.33 3.06 2.49 1.88 1.73 1.16 0.74 0.50 0.27 0.18 0.12 0.11 0.20 0.25 0.22 0.51 0.96 1.03 0.49 0.32 0.31 0.43 0.63 0.64 0.62 0.59 0.56 0.57 0.57 0.52 0.51 0.53 0.49 0.46 0.41 0.36 0.34 0.33 0.30 0.29 0.30 0.33 0.35 0.41 0.50 0.55 0.58
1.40 2.28 2.82 2.67 1.93 1.83 1.78 1.11 0.61 0.33 0.16 0.10 0.08 0.07 0.13 0.25 0.29 0.57 0.93 0.75 0.46 0.35 0.36 0.57 0.74 0.72 0.70 0.63 0.63 0.69 0.66 0.59 0.58 0.57 0.55 0.56 0.51 0.48 0.41 0.38 0.38 0.38 0.42 0.46 0.44 0.47 0.53 0.59 0.61
1.53 2.42 2.53 2.04 1.80 1.54 1.18 0.78 0.44 0.33 0.20 0.08 0.05 0.09 0.15 0.29 0.41 0.57 0.64 0.56 0.50 0.48 0.44 0.56 0.70 0.74 0.73 0.63 0.64 0.73 0.68 0.64 0.57 0.51 0.53 0.54 0.51 0.52 0.46 0.47 0.49 0.47 0.50 0.56 0.58 0.61 0.63 0.63 0.64
1.96 2.40 2.13 1.73 1.65 1.27 0.90 0.61 0.35 0.31 0.27 0.10 0.06 0.18 0.28 0.42 0.47 0.53 0.57 0.51 0.48 0.47 0.39 0.44 0.67 0.71 0.69 0.66 0.71 0.81 0.75 0.68 0.57 0.51 0.54 0.56 0.55 0.54 0.52 0.54 0.55 0.53 0.51 0.56 0.61 0.65 0.66 0.61 0.64
2.18 2.13 1.91 1.66 1.62 1.30 0.96 0.60 0.38 0.33 0.25 0.13 0.11 0.27 0.39 0.49 0.62 0.65 0.67 0.74 0.73 0.69 0.56 0.53 0.70 0.74 0.71 0.73 0.77 0.85 0.86 0.73 0.61 0.56 0.56 0.54 0.55 0.55 0.56 0.57 0.58 0.58 0.56 0.60 0.62 0.62 0.61 0.55 0.56
2.10 1.99 1.68 1.33 1.44 1.61 1.12 0.63 0.46 0.44 0.34 0.23 0.16 0.33 0.46 0.55 0.63 0.73 0.86 0.97 1.03 1.05 0.94 0.84 0.79 0.73 0.74 0.81 0.79 0.94 1.07 0.92 0.73 0.65 0.65 0.58 0.53 0.53 0.53 0.54 0.59 0.60 0.62 0.61 0.61 0.63 0.62 0.58 0.55
1.75 1.66 1.40 1.30 1.43 1.64 1.06 0.65 0.50 0.45 0.37 0.20 0.17 0.31 0.47 0.46 0.53 0.72 0.87 0.95 0.98 1.03 0.95 0.94 1.02 1.01 0.99 1.00 1.07 1.19 1.50 1.38 1.00 0.81 0.69 0.65 0.57 0.55 0.58 0.56 0.58 0.64 0.66 0.68 0.71 0.70 0.69 0.70 0.64
1.66 1.76 1.68 1.74 1.70 1.45 0.93 0.73 0.56 0.38 0.32 0.21 0.17 0.25 0.31 0.33 0.46 0.55 0.64 0.69 0.74 0.77 0.82 0.88 0.94 0.95 0.98 0.96 1.13 1.38 1.66 1.73 1.38 1.10 0.95 0.78 0.55 0.57 0.65 0.59 0.68 0.74 0.76 0.79 0.85 0.84 0.78 0.78 0.70
1.63 1.68 1.55 1.46 1.19 0.88 0.72 0.63 0.51 0.41 0.39 0.32 0.28 0.29 0.31 0.34 0.47 0.52 0.57 0.63 0.63 0.59 0.57 0.58 0.62 0.67 0.72 0.77 1.04 1.27 1.33 1.53 1.31 1.28 1.13 0.98 0.92 0.87 0.69 0.64 0.79 0.85 0.86 0.85 0.91 0.95 0.80 0.68 0.55
1.42 1.31 1.11 1.08 0.79 0.56 0.48 0.43 0.37 0.34 0.39 0.33 0.33 0.31 0.35 0.38 0.44 0.48 0.51 0.52 0.54 0.55 0.52 0.45 0.46 0.48 0.54 0.67 0.88 1.10 1.23 1.40 1.41 1.39 1.33 1.32 1.27 0.94 0.78 0.85 0.88 0.89 0.89 0.79 0.83 0.83 0.64 0.51 0.47
1.35 1.04 0.89 0.80 0.55 0.49 0.44 0.36 0.28 0.22 0.20 0.16 0.20 0.24 0.31 0.39 0.40 0.39 0.41 0.44 0.45 0.50 0.56 0.49 0.37 0.37 0.39 0.47 0.66 0.86 1.07 1.26 1.31 1.14 1.06 1.19 1.20 1.01 0.88 1.00 1.09 1.06 1.01 1.01 1.02 0.93 0.76 0.57 0.50
1.28 1.15 0.89 0.73 0.50 0.46 0.37 0.30 0.23 0.17 0.12 0.12 0.17 0.26 0.34 0.42 0.43 0.42 0.38 0.40 0.41 0.47 0.54 0.56 0.48 0.40 0.39 0.44 0.51 0.58 0.87 1.05 1.20 1.25 1.03 1.15 1.19 1.12 0.98 0.93 1.10 1.06 1.04 1.06 1.06 1.02 0.90 0.77 0.62
1.16 1.00 0.68 0.58 0.48 0.44 0.37 0.30 0.26 0.19 0.17 0.14 0.16 0.26 0.32 0.40 0.46 0.48 0.43 0.39 0.36 0.40 0.47 0.52 0.55 0.54 0.50 0.49 0.51 0.51 0.56 0.67 0.79 0.76 0.73 0.92 1.04 1.00 1.00 0.87 0.92 0.99 1.10 1.25 1.24 1.07 0.99 0.88 0.75
0.86 0.82 0.73 0.54 0.45 0.41 0.42 0.42 0.27 0.20 0.21 0.21 0.19 0.23 0.30 0.35 0.37 0.40 0.39 0.36 0.35 0.39 0.42 0.47 0.54 0.61 0.62 0.63 0.71 0.64 0.59 0.64 0.64 0.60 0.61 0.72 0.83 0.85 0.97 0.95 0.91 0.92 1.11 1.27 1.34 1.23 1.14 0.96 0.86
0.76 0.83 0.97 0.67 0.56 0.50 0.55 0.54 0.23 0.22 0.19 0.19 0.18 0.18 0.21 0.26 0.29 0.32 0.35 0.37 0.37 0.38 0.37 0.39 0.43 0.48 0.53 0.60 0.68 0.73 0.73 0.75 0.71 0.74 0.70 0.66 0.79 0.91 1.03 1.06 0.97 0.95 1.12 1.28 1.37 1.42 1.39 1.24 1.12
0.81 0.78 0.75 0.62 0.49 0.44 0.42 0.35 0.19 0.16 0.13 0.12 0.12 0.11 0.12 0.13 0.18 0.22 0.25 0.31 0.35 0.37 0.33 0.31 0.32 0.32 0.35 0.42 0.54 0.65 0.72 0.80 0.86 0.88 0.86 0.84 0.88 0.92 1.06 1.20 1.20 1.19 1.25 1.29 1.31 1.36 1.31 1.29 1.24
0.63 0.52 0.47 0.46 0.32 0.33 0.30 0.22 0.16 0.12 0.08 0.07 0.08 0.08 0.08 0.08 0.10 0.13 0.17 0.24 0.28 0.30 0.31 0.30 0.31 0.30 0.27 0.31 0.45 0.56 0.63 0.71 0.87 0.94 1.01 1.27 1.36 1.14 1.10 1.21 1.23 1.25 1.38 1.38 1.49 1.60 1.45 1.30 1.34
0.45 0.33 0.31 0.29 0.20 0.19 0.16 0.14 0.11 0.07 0.06 0.04 0.04 0.06 0.06 0.06 0.05 0.04 0.05 0.09 0.16 0.16 0.15 0.18 0.24 0.31 0.29 0.26 0.33 0.44 0.53 0.67 0.81 0.97 1.04 1.27 1.37 1.28 1.29 1.30 1.29 1.29 1.33 1.37 1.53 1.77 1.66 1.48 1.40
0.40 0.34 0.28 0.21 0.18 0.14 0.11 0.09 0.08 0.06 0.05 0.03 0.03 0.04 0.04 0.05 0.05 0.05 0.04 0.04 0.06 0.09 0.09 0.12 0.15 0.24 0.32 0.36 0.41 0.53 0.71 0.83 0.93 1.06 1.13 1.24 1.26 1.25 1.18 1.33 1.42 1.36 1.43 1.50 1.64 1.82 1.88 1.71 1.57
0.32 0.35 0.26 0.19 0.16 0.12 0.11 0.11 0.07 0.06 0.06 0.05 0.04 0.04 0.05 0.05 0.06 0.07 0.06 0.05 0.04 0.05 0.07 0.12 0.20 0.33 0.50 0.66 0.88 1.13 1.41 1.53 1.42 1.27 1.34 1.47 1.53 1.49 1.42 1.48 1.62 1.54 1.55 1.59 1.63 1.66 1.97 2.04 1.88
0.32 0.20 0.17 0.13 0.15 0.12 0.09 0.11 0.08 0.08 0.09 0.10 0.10 0.09 0.10 0.09 0.08 0.08 0.07 0.07 0.09 0.12 0.19 0.29 0.41 0.57 0.74 0.95 1.17 1.43 1.66 1.82 1.84 1.86 1.89 1.87 1.82 1.70 1.59 1.58 1.62 1.64 1.68 1.61 1.51 1.64 1.96 2.29 2.25
0.24 0.17 0.13 0.12 0.13 0.09 0.07 0.07 0.09 0.14 0.20 0.24 0.26 0.26 0.24 0.20 0.20 0.19 0.17 0.17 0.19 0.29 0.42 0.53 0.76 0.93 1.07 1.13 1.23 1.45 1.56 1.63 1.74 1.88 1.93 1.93 1.84 1.71 1.56 1.51 1.54 1.60 1.69 1.68 1.72 1.86 2.12 2.34 2.48
0.19 0.17 0.15 0.14 0.13 0.12 0.08 0.09 0.18 0.26 0.34 0.41 0.41 0.37 0.34 0.27 0.25 0.27 0.30 0.31 0.35 0.57 0.81 0.96 1.07 1.16 1.16 1.14 1.16 1.30 1.44 1.52 1.60 1.73 1.79 1.73 1.59 1.54 1.51 1.49 1.45 1.40 1.47 1.57 1.73 1.96 2.07 2.23 2.41
0.15 0.18 0.19 0.20 0.16 0.14 0.08 0.15 0.29 0.29 0.28 0.31 0.34 0.34 0.30 0.22 0.20 0.24 0.34 0.46 0.65 0.90 1.14 1.29 1.28 1.18 1.05 1.03 1.09 1.15 1.30 1.44 1.48 1.49 1.51 1.45 1.38 1.34 1.36 1.37 1.31 1.21 1.20 1.31 1.49 1.69 1.75 1.87 2.04
0.11 0.12 0.18 0.23 0.19 0.15 0.14 0.30 0.41 0.31 0.22 0.17 0.18 0.18 0.20 0.25 0.31 0.32 0.38 0.57 0.85 1.12 1.37 1.64 1.62 1.38 1.16 1.11 1.17 1.19 1.27 1.33 1.31 1.25 1.26 1.26 1.22 1.17 1.11 1.14 1.15 1.11 1.10 1.12 1.21 1.31 1.39 1.49 1.65
0.07 0.09 0.12 0.20 0.16 0.12 0.15 0.28 0.30 0.21 0.15 0.13 0.15 0.19 0.24 0.31 0.41 0.49 0.61 0.71 0.92 1.14 1.48 1.76 1.82 1.62 1.46 1.37 1.31 1.31 1.21 1.12 1.05 0.97 0.96 0.99 1.00 0.94 0.90 0.97 1.06 1.12 1.04 0.98 1.04 1.10 1.14 1.25 1.36
0.06 0.08 0.12 0.21 0.21 0.17 0.17 0.25 0.20 0.11 0.10 0.13 0.19 0.24 0.29 0.37 0.43 0.58 0.84 1.05 1.28 1.23 1.37 1.61 1.54 1.48 1.46 1.47 1.46 1.35 1.20 1.07 1.03 0.95 0.92 0.89 0.94 0.85 0.85 0.88 0.89 0.90 0.88 0.91 1.00 1.09 1.18 1.18 1.23
0.04 0.07 0.11 0.17 0.20 0.23 0.30 0.34 0.22 0.18 0.20 0.26 0.32 0.35 0.38 0.46 0.51 0.65 0.82 0.97 1.16 1.27 1.29 1.33 1.32 1.33 1.29 1.22 1.18 1.06 0.86 0.75 0.76 0.77 0.73 0.68 0.71 0.66 0.68 0.66 0.70 0.81 0.81 0.80 0.89 0.95 0.98 1.07 1.16
0.11 0.13 0.15 0.24 0.29 0.32 0.46 0.51 0.33 0.33 0.38 0.46 0.52 0.55 0.58 0.59 0.62 0.72 0.80 0.95 1.04 1.05 1.10 1.17 1.10 1.09 1.04 0.93 0.84 0.72 0.57 0.51 0.56 0.57 0.52 0.45 0.47 0.44 0.51 0.55 0.54 0.70 0.86 0.88 0.91 0.92 0.89 0.94 0.99

GEFSSGP_prec_meanprecacc_126.txt.gz
Total_Precipitation_Accumulation
1.63 1.46 2.06 2.90 2.69 2.03 1.63 1.20 0.79 0.64 0.45 0.36 0.27 0.25 0.40 0.68 0.94 1.19 1.01 0.87 0.57 0.42 0.37 0.54 0.77 0.68 0.62 0.60 0.57 0.49 0.50 0.49 0.44 0.45 0.44 0.44 0.39 0.36 0.34 0.31 0.29 0.28 0.27 0.28 0.32 0.41 0.47 0.50 0.57
1.24 1.71 2.40 3.11 2.52 1.90 1.76 1.20 0.80 0.57 0.34 0.24 0.18 0.15 0.24 0.27 0.23 0.52 0.98 1.08 0.51 0.34 0.34 0.47 0.75 0.74 0.71 0.66 0.62 0.61 0.63 0.57 0.56 0.58 0.54 0.53 0.48 0.41 0.36 0.36 0.33 0.32 0.33 0.36 0.37 0.43 0.51 0.56 0.59
1.45 2.35 2.89 2.71 1.96 1.87 1.82 1.16 0.67 0.39 0.20 0.16 0.14 0.11 0.15 0.26 0.32 0.61 0.95 0.77 0.48 0.36 0.39 0.61 0.81 0.79 0.77 0.69 0.67 0.74 0.71 0.64 0.62 0.62 0.60 0.60 0.55 0.51 0.43 0.40 0.39 0.40 0.44 0.49 0.46 0.48 0.54 0.61 0.63
1.59 2.49 2.58 2.07 1.83 1.57 1.22 0.82 0.49 0.40 0.26 0.12 0.08 0.12 0.17 0.31 0.44 0.59 0.65 0.57 0.51 0.48 0.45 0.59 0.74 0.79 0.78 0.67 0.68 0.77 0.71 0.67 0.60 0.55 0.56 0.56 0.54 0.54 0.47 0.48 0.50 0.48 0.51 0.57 0.59 0.62 0.64 0.64 0.66
2.01 2.43 2.15 1.75 1.68 1.29 0.93 0.64 0.40 0.40 0.34 0.14 0.07 0.20 0.31 0.44 0.51 0.56 0.58 0.51 0.48 0.47 0.40 0.46 0.69 0.73 0.72 0.70 0.75 0.84 0.76 0.70 0.59 0.53 0.57 0.58 0.57 0.56 0.53 0.55 0.57 0.54 0.52 0.57 0.62 0.66 0.66 0.63 0.65
2.22 2.14 1.93 1.68 1.65 1.34 1.00 0.65 0.45 0.42 0.30 0.16 0.12 0.28 0.41 0.52 0.66 0.69 0.69 0.75 0.73 0.69 0.56 0.53 0.71 0.76 0.73 0.76 0.80 0.87 0.87 0.75 0.62 0.57 0.57 0.55 0.56 0.55 0.57 0.57 0.59 0.58 0.57 0.61 0.63 0.63 0.61 0.56 0.57
2.13 2.00 1.70 1.36 1.48 1.67 1.20 0.71 0.56 0.52 0.39 0.26 0.17 0.35 0.47 0.59 0.67 0.78 0.89 0.98 1.03 1.05 0.94 0.84 0.80 0.74 0.76 0.83 0.80 0.94 1.08 0.92 0.74 0.65 0.65 0.58 0.54 0.53 0.53 0.54 0.59 0.60 0.62 0.62 0.61 0.64 0.63 0.59 0.57
1.80 1.69 1.42 1.34 1.49 1.70 1.13 0.73 0.59 0.53 0.43 0.23 0.18 0.32 0.48 0.48 0.56 0.77 0.92 0.97 0.99 1.03 0.95 0.94 1.03 1.01 1.00 1.01 1.07 1.19 1.50 1.38 1.00 0.81 0.70 0.65 0.58 0.55 0.59 0.56 0.58 0.64 0.67 0.68 0.71 0.70 0.70 0.71 0.66
1.72 1.80 1.71 1.79 1.76 1.50 0.99 0.81 0.64 0.46 0.38 0.25 0.19 0.26 0.32 0.34 0.48 0.59 0.67 0.70 0.75 0.77 0.82 0.88 0.94 0.95 0.98 0.96 1.13 1.38 1.67 1.73 1.38 1.10 0.95 0.78 0.55 0.57 0.65 0.59 0.69 0.74 0.76 0.80 0.86 0.86 0.79 0.79 0.71
1.67 1.72 1.59 1.49 1.21 0.91 0.77 0.69 0.59 0.50 0.51 0.40 0.31 0.29 0.33 0.36 0.49 0.54 0.57 0.64 0.63 0.60 0.57 0.58 0.62 0.67 0.72 0.77 1.04 1.27 1.33 1.53 1.31 1.28 1.13 0.98 0.92 0.87 0.69 0.64 0.79 0.85 0.86 0.86 0.91 0.96 0.81 0.68 0.56
1.47 1.35 1.15 1.11 0.81 0.57 0.52 0.48 0.41 0.38 0.46 0.39 0.36 0.32 0.36 0.38 0.46 0.49 0.51 0.52 0.54 0.55 0.52 0.45 0.46 0.48 0.54 0.67 0.88 1.10 1.23 1.40 1.41 1.39 1.33 1.32 1.27 0.94 0.78 0.85 0.88 0.89 0.89 0.79 0.83 0.83 0.64 0.51 0.47
1.40 1.08 0.93 0.84 0.59 0.54 0.50 0.41 0.33 0.25 0.23 0.19 0.22 0.25 0.33 0.40 0.41 0.39 0.42 0.44 0.45 0.50 0.56 0.49 0.37 0.37 0.39 0.47 0.66 0.86 1.07 1.26 1.31 1.14 1.06 1.19 1.20 1.01 0.88 1.00 1.09 1.06 1.01 1.01 1.02 0.93 0.76 0.58 0.50
1.35 1.21 0.93 0.78 0.55 0.52 0.44 0.37 0.28 0.20 0.17 0.16 0.19 0.28 0.36 0.43 0.44 0.42 0.38 0.40 0.41 0.47 0.54 0.56 0.48 0.40 0.39 0.44 0.51 0.58 0.87 1.05 1.20 1.25 1.03 1.15 1.19 1.12 0.98 0.93 1.10 1.06 1.04 1.06 1.06 1.02 0.90 0.77 0.62
1.22 1.07 0.76 0.66 0.55 0.50 0.43 0.37 0.31 0.23 0.21 0.19 0.20 0.29 0.35 0.41 0.46 0.48 0.43 0.39 0.36 0.40 0.47 0.52 0.55 0.54 0.50 0.49 0.51 0.51 0.56 0.67 0.79 0.76 0.73 0.92 1.04 1.00 1.00 0.87 0.93 1.00 1.10 1.25 1.24 1.07 0.99 0.89 0.76
0.92 0.92 0.84 0.63 0.54 0.48 0.48 0.48 0.32 0.24 0.24 0.26 0.24 0.25 0.32 0.36 0.37 0.40 0.39 0.37 0.35 0.39 0.42 0.47 0.54 0.61 0.62 0.63 0.71 0.64 0.59 0.64 0.64 0.60 0.61 0.72 0.83 0.85 0.97 0.95 0.91 0.92 1.11 1.28 1.35 1.23 1.14 0.96 0.87
0.86 0.93 1.06 0.75 0.63 0.56 0.62 0.60 0.29 0.26 0.21 0.21 0.20 0.20 0.23 0.27 0.29 0.32 0.35 0.37 0.37 0.38 0.37 0.39 0.43 0.48 0.53 0.60 0.68 0.73 0.73 0.75 0.71 0.74 0.70 0.66 0.79 0.91 1.03 1.06 0.97 0.95 1.12 1.28 1.38 1.43 1.39 1.24 1.12
0.89 0.84 0.80 0.68 0.56 0.51 0.49 0.40 0.23 0.20 0.16 0.15 0.14 0.13 0.14 0.15 0.19 0.23 0.26 0.31 0.35 0.37 0.33 0.31 0.32 0.32 0.35 0.42 0.54 0.65 0.72 0.80 0.86 0.88 0.86 0.84 0.88 0.92 1.06 1.20 1.20 1.19 1.26 1.29 1.31 1.36 1.32 1.30 1.25
0.68 0.56 0.52 0.52 0.38 0.40 0.35 0.26 0.20 0.17 0.13 0.10 0.11 0.10 0.09 0.10 0.11 0.14 0.18 0.25 0.28 0.30 0.31 0.30 0.31 0.30 0.27 0.31 0.45 0.56 0.63 0.71 0.87 0.94 1.01 1.27 1.36 1.14 1.10 1.21 1.23 1.25 1.38 1.39 1.49 1.60 1.46 1.31 1.35
0.49 0.37 0.35 0.34 0.25 0.24 0.21 0.18 0.16 0.13 0.10 0.07 0.07 0.08 0.08 0.08 0.07 0.05 0.06 0.09 0.16 0.16 0.15 0.18 0.24 0.31 0.29 0.26 0.33 0.44 0.53 0.67 0.81 0.97 1.04 1.27 1.38 1.28 1.29 1.30 1.29 1.29 1.33 1.37 1.53 1.77 1.67 1.49 1.40
0.44 0.40 0.32 0.26 0.24 0.19 0.16 0.15 0.14 0.10 0.08 0.06 0.05 0.06 0.06 0.06 0.06 0.05 0.04 0.04 0.06 0.09 0.09 0.12 0.16 0.25 0.32 0.36 0.41 0.53 0.71 0.83 0.93 1.06 1.13 1.24 1.26 1.25 1.18 1.33 1.42 1.36 1.43 1.50 1.64 1.82 1.88 1.71 1.57
0.36 0.41 0.31 0.24 0.23 0.19 0.17 0.16 0.11 0.09 0.08 0.07 0.06 0.06 0.07 0.06 0.06 0.07 0.06 0.06 0.04 0.05 0.07 0.12 0.20 0.33 0.50 0.66 0.88 1.13 1.41 1.53 1.42 1.27 1.34 1.47 1.53 1.49 1.42 1.49 1.62 1.54 1.55 1.59 1.63 1.67 1.97 2.04 1.88
0.36 0.25 0.22 0.19 0.23 0.18 0.12 0.14 0.09 0.10 0.11 0.11 0.11 0.11 0.11 0.10 0.08 0.08 0.07 0.07 0.09 0.12 0.19 0.29 0.41 0.57 0.74 0.95 1.17 1.43 1.66 1.82 1.84 1.86 1.89 1.87 1.82 1.70 1.59 1.58 1.63 1.64 1.69 1.61 1.51 1.64 1.96 2.29 2.25
0.29 0.22 0.20 0.20 0.21 0.13 0.10 0.10 0.10 0.15 0.21 0.25 0.26 0.26 0.25 0.21 0.20 0.20 0.18 0.17 0.19 0.29 0.42 0.53 0.76 0.93 1.07 1.13 1.23 1.45 1.56 1.63 1.74 1.88 1.93 1.93 1.84 1.71 1.56 1.51 1.54 1.60 1.69 1.68 1.72 1.86 2.12 2.34 2.48
0.25 0.26 0.25 0.25 0.22 0.16 0.10 0.11 0.20 0.28 0.35 0.41 0.41 0.37 0.34 0.28 0.25 0.28 0.31 0.32 0.36 0.58 0.81 0.96 1.07 1.16 1.16 1.14 1.16 1.30 1.44 1.52 1.60 1.73 1.79 1.73 1.59 1.54 1.51 1.49 1.45 1.40 1.47 1.57 1.73 1.96 2.07 2.24 2.42
0.25 0.28 0.29 0.30 0.23 0.18 0.09 0.16 0.30 0.31 0.29 0.32 0.34 0.34 0.30 0.23 0.20 0.24 0.34 0.46 0.65 0.91 1.14 1.29 1.28 1.18 1.05 1.03 1.09 1.15 1.30 1.44 1.48 1.49 1.51 1.45 1.38 1.34 1.36 1.37 1.31 1.21 1.20 1.31 1.49 1.69 1.75 1.87 2.05
0.21 0.19 0.23 0.28 0.24 0.17 0.15 0.30 0.41 0.32 0.22 0.18 0.18 0.19 0.21 0.26 0.31 0.32 0.38 0.57 0.86 1.13 1.37 1.64 1.62 1.38 1.16 1.11 1.17 1.19 1.27 1.33 1.31 1.25 1.26 1.26 1.22 1.17 1.11 1.14 1.15 1.11 1.10 1.12 1.21 1.31 1.39 1.49 1.65
0.15 0.14 0.16 0.23 0.19 0.14 0.15 0.28 0.31 0.21 0.15 0.13 0.15 0.19 0.25 0.31 0.41 0.49 0.61 0.71 0.92 1.14 1.48 1.76 1.82 1.62 1.46 1.37 1.31 1.31 1.21 1.12 1.05 0.97 0.96 0.99 1.00 0.94 0.90 0.97 1.06 1.12 1.04 0.98 1.04 1.10 1.14 1.25 1.37
0.12 0.14 0.15 0.24 0.24 0.19 0.18 0.25 0.20 0.12 0.10 0.13 0.19 0.25 0.30 0.37 0.43 0.58 0.84 1.05 1.28 1.23 1.37 1.61 1.54 1.48 1.46 1.47 1.46 1.35 1.20 1.07 1.03 0.95 0.92 0.89 0.94 0.85 0.85 0.88 0.89 0.90 0.88 0.91 1.00 1.09 1.18 1.18 1.23
0.09 0.11 0.13 0.18 0.21 0.24 0.31 0.34 0.22 0.18 0.20 0.26 0.32 0.35 0.38 0.46 0.51 0.65 0.82 0.97 1.16 1.27 1.29 1.33 1.32 1.33 1.29 1.22 1.18 1.06 0.86 0.75 0.76 0.77 0.73 0.68 0.71 0.66 0.68 0.66 0.70 0.81 0.81 0.80 0.89 0.95 0.98 1.07 1.16
0.13 0.15 0.16 0.25 0.29 0.32 0.46 0.51 0.33 0.33 0.38 0.46 0.52 0.55 0.59 0.59 0.62 0.72 0.80 0.95 1.04 1.05 1.10 1.17 1.10 1.09 1.04 0.93 0.84 0.72 0.57 0.51 0.56 0.57 0.52 0.45 0.47 0.44 0.51 0.55 0.54 0.70 0.86 0.88 0.91 0.92 0.89 0.94 0.99

GEFSSGP_prec_meanprecacc_132.txt.gz
Total_Precipitation_Accumulation
1.65 1.47 2.06 2.91 2.70 2.06 1.67 1.23 0.83 0.67 0.48 0.40 0.32 0.31 0.46 0.74 1.00 1.25 1.08 0.93 0.59 0.43 0.39 0.59 0.91 0.82 0.76 0.75 0.69 0.59 0.60 0.57 0.51 0.52 0.51 0.52 0.47 0.42 0.39 0.38 0.35 0.32 0.31 0.31 0.37 0.45 0.51 0.52 0.60
1.25 1.71 2.40 3.12 2.54 1.93 1.79 1.24 0.85 0.62 0.38 0.27 0.21 0.19 0.29 0.32 0.27 0.56 1.04 1.12 0.52 0.35 0.36 0.51 0.86 0.85 0.83 0.79 0.72 0.70 0.70 0.63 0.61 0.64 0.60 0.59 0.54 0.46 0.41 0.40 0.36 0.35 0.36 0.39 0.41 0.46 0.54 0.58 0.61
1.45 2.36 2.90 2.72 1.98 1.89 1.85 1.20 0.73 0.44 0.24 0.19 0.18 0.15 0.20 0.31 0.35 0.65 1.00 0.79 0.49 0.37 0.41 0.65 0.91 0.87 0.84 0.76 0.74 0.80 0.77 0.69 0.67 0.66 0.64 0.64 0.59 0.56 0.47 0.42 0.41 0.41 0.46 0.50 0.48 0.50 0.55 0.62 0.65
1.60 2.50 2.59 2.09 1.86 1.59 1.24 0.85 0.53 0.46 0.30 0.15 0.12 0.17 0.22 0.37 0.49 0.63 0.68 0.59 0.51 0.49 0.46 0.61 0.80 0.86 0.83 0.72 0.74 0.83 0.76 0.71 0.63 0.57 0.58 0.59 0.57 0.57 0.50 0.50 0.51 0.49 0.52 0.58 0.61 0.63 0.65 0.66 0.67
2.02 2.44 2.16 1.78 1.70 1.31 0.94 0.67 0.46 0.48 0.42 0.19 0.11 0.24 0.37 0.51 0.56 0.59 0.61 0.53 0.49 0.48 0.40 0.47 0.72 0.77 0.75 0.72 0.78 0.87 0.80 0.73 0.62 0.55 0.58 0.60 0.59 0.57 0.55 0.56 0.57 0.55 0.53 0.57 0.63 0.67 0.67 0.64 0.66
2.24 2.16 1.95 1.71 1.68 1.36 1.02 0.67 0.50 0.48 0.39 0.23 0.17 0.32 0.46 0.58 0.70 0.71 0.70 0.76 0.74 0.70 0.56 0.54 0.73 0.78 0.75 0.78 0.81 0.88 0.88 0.77 0.64 0.58 0.58 0.56 0.56 0.56 0.57 0.58 0.59 0.59 0.58 0.61 0.63 0.63 0.62 0.57 0.58
2.15 2.01 1.72 1.39 1.51 1.70 1.24 0.75 0.60 0.56 0.44 0.30 0.22 0.39 0.51 0.64 0.71 0.79 0.90 0.99 1.04 1.05 0.95 0.85 0.80 0.75 0.77 0.83 0.80 0.95 1.09 0.93 0.75 0.66 0.66 0.58 0.54 0.53 0.54 0.54 0.60 0.61 0.63 0.62 0.62 0.64 0.63 0.60 0.57
1.81 1.70 1.44 1.36 1.53 1.74 1.18 0.77 0.63 0.57 0.49 0.26 0.21 0.35 0.51 0.50 0.58 0.79 0.93 0.98 0.99 1.03 0.95 0.95 1.03 1.01 1.00 1.01 1.07 1.19 1.50 1.38 1.00 0.81 0.70 0.65 0.58 0.55 0.59 0.56 0.59 0.65 0.67 0.69 0.72 0.71 0.70 0.71 0.66
1.73 1.81 1.74 1.82 1.80 1.55 1.05 0.87 0.70 0.49 0.43 0.30 0.23 0.28 0.36 0.37 0.50 0.62 0.69 0.70 0.75 0.78 0.82 0.88 0.94 0.96 0.98 0.96 1.13 1.38 1.67 1.73 1.38 1.10 0.95 0.78 0.55 0.57 0.65 0.59 0.69 0.74 0.77 0.80 0.86 0.86 0.80 0.80 0.71
1.68 1.74 1.62 1.51 1.23 0.94 0.81 0.74 0.64 0.55 0.56 0.45 0.37 0.33 0.36 0.41 0.55 0.60 0.59 0.64 0.64 0.60 0.57 0.58 0.62 0.67 0.72 0.77 1.04 1.27 1.33 1.53 1.31 1.28 1.13 0.98 0.92 0.87 0.69 0.64 0.79 0.86 0.87 0.86 0.91 0.96 0.81 0.68 0.56
1.48 1.37 1.18 1.13 0.82 0.60 0.55 0.51 0.44 0.42 0.50 0.46 0.42 0.36 0.40 0.45 0.49 0.51 0.52 0.53 0.54 0.55 0.52 0.45 0.46 0.48 0.54 0.67 0.88 1.10 1.23 1.40 1.41 1.39 1.33 1.32 1.27 0.94 0.78 0.85 0.88 0.90 0.89 0.79 0.84 0.84 0.64 0.52 0.48
1.42 1.12 0.96 0.87 0.61 0.57 0.53 0.43 0.35 0.26 0.27 0.24 0.28 0.30 0.37 0.44 0.44 0.41 0.42 0.44 0.45 0.50 0.56 0.49 0.37 0.37 0.39 0.47 0.66 0.86 1.07 1.26 1.31 1.14 1.06 1.19 1.20 1.01 0.88 1.01 1.09 1.06 1.01 1.01 1.02 0.93 0.77 0.58 0.51
1.37 1.25 0.96 0.80 0.58 0.56 0.46 0.40 0.31 0.21 0.20 0.20 0.23 0.33 0.41 0.49 0.49 0.44 0.39 0.40 0.41 0.47 0.54 0.56 0.48 0.40 0.39 0.44 0.51 0.58 0.87 1.05 1.20 1.25 1.03 1.15 1.19 1.12 0.98 0.93 1.10 1.06 1.05 1.06 1.07 1.03 0.91 0.78 0.63
1.25 1.13 0.84 0.71 0.58 0.53 0.47 0.40 0.35 0.25 0.23 0.22 0.24 0.35 0.42 0.48 0.53 0.50 0.44 0.39 0.36 0.40 0.47 0.52 0.55 0.54 0.50 0.49 0.51 0.51 0.56 0.67 0.79 0.76 0.73 0.92 1.04 1.00 1.00 0.87 0.93 1.00 1.10 1.26 1.25 1.08 1.01 0.90 0.77
0.95 0.98 0.93 0.73 0.61 0.52 0.53 0.54 0.37 0.27 0.27 0.28 0.27 0.30 0.40 0.41 0.43 0.42 0.40 0.37 0.35 0.39 0.42 0.47 0.54 0.61 0.62 0.63 0.71 0.64 0.59 0.64 0.64 0.60 0.61 0.72 0.83 0.85 0.97 0.95 0.91 0.93 1.11 1.28 1.35 1.24 1.16 0.97 0.87
0.93 0.99 1.14 0.86 0.75 0.63 0.69 0.68 0.34 0.28 0.24 0.24 0.23 0.24 0.29 0.32 0.33 0.33 0.35 0.37 0.37 0.38 0.37 0.39 0.43 0.48 0.53 0.60 0.68 0.73 0.73 0.75 0.71 0.74 0.70 0.66 0.79 0.91 1.03 1.06 0.97 0.96 1.13 1.29 1.39 1.44 1.41 1.27 1.14
0.98 0.91 0.88 0.80 0.67 0.58 0.56 0.49 0.28 0.23 0.19 0.17 0.16 0.17 0.21 0.20 0.22 0.24 0.26 0.31 0.35 0.37 0.33 0.31 0.32 0.32 0.35 0.42 0.54 0.65 0.72 0.80 0.86 0.88 0.86 0.84 0.88 0.92 1.06 1.20 1.20 1.19 1.26 1.30 1.31 1.37 1.33 1.32 1.27
0.74 0.63 0.59 0.62 0.47 0.49 0.43 0.32 0.24 0.22 0.17 0.13 0.13 0.14 0.15 0.14 0.13 0.14 0.18 0.25 0.28 0.30 0.31 0.30 0.31 0.30 0.27 0.31 0.45 0.56 0.63 0.71 0.87 0.94 1.01 1.27 1.36 1.14 1.11 1.21 1.23 1.26 1.39 1.39 1.49 1.62 1.47 1.33 1.37
0.54 0.43 0.43 0.43 0.32 0.34 0.30 0.23 0.21 0.18 0.13 0.10 0.09 0.10 0.12 0.11 0.07 0.05 0.06 0.09 0.16 0.16 0.15 0.18 0.24 0.31 0.29 0.26 0.33 0.44 0.53 0.67 0.81 0.97 1.04 1.27 1.38 1.28 1.30 1.30 1.29 1.30 1.33 1.37 1.53 1.79 1.70 1.51 1.42
0.50 0.46 0.39 0.33 0.30 0.28 0.25 0.22 0.19 0.13 0.10 0.08 0.08 0.08 0.08 0.08 0.06 0.05 0.04 0.04 0.06 0.09 0.09 0.12 0.16 0.25 0.32 0.36 0.41 0.53 0.71 0.83 0.93 1.06 1.13 1.24 1.26 1.26 1.19 1.33 1.42 1.36 1.43 1.50 1.64 1.84 1.91 1.73 1.59
0.43 0.47 0.36 0.30 0.30 0.27 0.26 0.24 0.15 0.11 0.10 0.09 0.08 0.08 0.08 0.06 0.06 0.07 0.06 0.06 0.04 0.05 0.07 0.12 0.20 0.33 0.50 0.66 0.88 1.13 1.41 1.53 1.42 1.27 1.34 1.47 1.53 1.49 1.42 1.49 1.62 1.54 1.55 1.59 1.63 1.67 1.98 2.06 1.89
0.44 0.31 0.25 0.24 0.31 0.26 0.19 0.21 0.13 0.12 0.13 0.13 0.13 0.11 0.12 0.10 0.09 0.08 0.07 0.07 0.09 0.12 0.19 0.29 0.41 0.57 0.74 0.95 1.17 1.43 1.66 1.82 1.84 1.86 1.89 1.87 1.82 1.70 1.59 1.58 1.63 1.64 1.69 1.61 1.51 1.64 1.97 2.31 2.27
0.36 0.29 0.25 0.25 0.28 0.20 0.15 0.14 0.13 0.16 0.22 0.26 0.27 0.27 0.25 0.21 0.21 0.20 0.18 0.17 0.19 0.29 0.42 0.53 0.76 0.93 1.07 1.13 1.23 1.45 1.56 1.63 1.74 1.88 1.93 1.93 1.84 1.71 1.56 1.51 1.54 1.60 1.69 1.68 1.72 1.86 2.12 2.35 2.49
0.32 0.33 0.32 0.32 0.31 0.23 0.14 0.14 0.22 0.29 0.36 0.42 0.42 0.38 0.34 0.28 0.25 0.28 0.31 0.32 0.36 0.58 0.81 0.96 1.07 1.16 1.16 1.14 1.16 1.30 1.44 1.52 1.60 1.73 1.79 1.73 1.59 1.54 1.51 1.49 1.45 1.40 1.47 1.57 1.73 1.96 2.07 2.24 2.42
0.31 0.37 0.40 0.40 0.33 0.24 0.12 0.18 0.31 0.32 0.30 0.33 0.35 0.34 0.31 0.24 0.20 0.25 0.34 0.47 0.66 0.91 1.14 1.29 1.28 1.18 1.05 1.03 1.09 1.15 1.30 1.44 1.48 1.49 1.51 1.45 1.38 1.34 1.36 1.37 1.31 1.21 1.20 1.32 1.49 1.70 1.75 1.87 2.05
0.27 0.27 0.33 0.36 0.29 0.21 0.18 0.32 0.42 0.33 0.23 0.19 0.19 0.19 0.21 0.26 0.31 0.32 0.39 0.58 0.86 1.13 1.37 1.64 1.62 1.38 1.16 1.11 1.17 1.19 1.27 1.33 1.31 1.25 1.26 1.26 1.22 1.17 1.11 1.14 1.15 1.11 1.10 1.12 1.21 1.32 1.39 1.49 1.65
0.23 0.22 0.21 0.29 0.23 0.16 0.17 0.29 0.32 0.22 0.16 0.14 0.16 0.19 0.25 0.32 0.41 0.50 0.62 0.71 0.92 1.14 1.48 1.76 1.82 1.62 1.46 1.37 1.31 1.31 1.21 1.12 1.05 0.97 0.96 0.99 1.00 0.94 0.90 0.97 1.06 1.12 1.04 0.98 1.04 1.10 1.14 1.26 1.37
0.18 0.20 0.20 0.29 0.28 0.22 0.19 0.26 0.21 0.13 0.11 0.14 0.21 0.25 0.30 0.38 0.43 0.58 0.84 1.05 1.28 1.23 1.37 1.61 1.54 1.48 1.46 1.47 1.46 1.35 1.20 1.07 1.03 0.95 0.92 0.89 0.94 0.85 0.85 0.88 0.89 0.90 0.88 0.91 1.00 1.09 1.18 1.19 1.23
0.15 0.17 0.17 0.22 0.24 0.26 0.33 0.35 0.23 0.19 0.20 0.26 0.33 0.35 0.39 0.46 0.51 0.65 0.82 0.97 1.16 1.27 1.29 1.33 1.32 1.33 1.29 1.22 1.18 1.06 0.86 0.75 0.76 0.77 0.73 0.68 0.71 0.66 0.68 0.66 0.70 0.81 0.81 0.80 0.89 0.95 0.98 1.07 1.17
0.18 0.20 0.20 0.28 0.31 0.33 0.47 0.52 0.33 0.34 0.38 0.46 0.52 0.55 0.59 0.59 0.62 0.72 0.80 0.95 1.04 1.05 1.10 1.17 1.10 1.09 1.04 0.93 0.84 0.72 0.57 0.51 0.56 0.57 0.52 0.45 0.47 0.44 0.51 0.55 0.54 0.70 0.86 0.88 0.91 0.92 0.89 0.95 0.99

GEFSSGP_prec_meanprecacc_138.txt.gz
Total_Precipitation_Accumulation
1.66 1.48 2.09 2.98 2.85 2.27 1.87 1.36 0.90 0.74 0.51 0.41 0.33 0.34 0.53 0.84 1.12 1.36 1.19 1.02 0.64 0.47 0.41 0.61 0.95 0.88 0.84 0.83 0.77 0.69 0.70 0.65 0.58 0.58 0.55 0.55 0.51 0.45 0.42 0.39 0.39 0.36 0.34 0.34 0.40 0.48 0.54 0.55 0.62
1.27 1.73 2.43 3.21 2.72 2.14 1.97 1.37 0.96 0.69 0.41 0.29 0.22 0.21 0.31 0.36 0.31 0.63 1.13 1.21 0.56 0.36 0.38 0.53 0.88 0.89 0.90 0.89 0.80 0.75 0.75 0.69 0.68 0.67 0.63 0.62 0.55 0.47 0.43 0.42 0.39 0.38 0.38 0.41 0.43 0.49 0.58 0.61 0.63
1.46 2.37 2.94 2.85 2.17 2.10 2.00 1.31 0.80 0.46 0.25 0.20 0.19 0.17 0.24 0.38 0.41 0.71 1.07 0.85 0.51 0.39 0.43 0.67 0.93 0.91 0.90 0.83 0.79 0.85 0.81 0.72 0.71 0.69 0.67 0.67 0.61 0.57 0.48 0.44 0.44 0.43 0.48 0.52 0.50 0.52 0.57 0.64 0.66
1.61 2.52 2.64 2.22 2.05 1.73 1.31 0.91 0.58 0.47 0.32 0.16 0.14 0.20 0.26 0.43 0.54 0.67 0.73 0.62 0.54 0.52 0.48 0.62 0.82 0.89 0.87 0.75 0.76 0.86 0.79 0.74 0.66 0.59 0.60 0.60 0.58 0.58 0.51 0.53 0.54 0.50 0.53 0.59 0.61 0.64 0.65 0.66 0.67
2.03 2.49 2.25 1.92 1.85 1.40 0.98 0.68 0.49 0.50 0.46 0.22 0.13 0.28 0.43 0.55 0.59 0.62 0.64 0.56 0.51 0.50 0.42 0.48 0.73 0.80 0.77 0.74 0.79 0.89 0.82 0.75 0.63 0.56 0.60 0.61 0.60 0.58 0.56 0.58 0.58 0.56 0.54 0.58 0.63 0.68 0.68 0.64 0.66
2.27 2.21 2.05 1.86 1.81 1.42 1.06 0.69 0.52 0.50 0.41 0.27 0.21 0.37 0.54 0.64 0.72 0.73 0.72 0.78 0.75 0.71 0.57 0.55 0.73 0.79 0.76 0.79 0.82 0.89 0.89 0.78 0.65 0.59 0.59 0.56 0.57 0.57 0.58 0.59 0.60 0.60 0.59 0.62 0.63 0.63 0.62 0.57 0.58
2.20 2.08 1.82 1.50 1.65 1.79 1.28 0.77 0.61 0.58 0.47 0.34 0.26 0.44 0.58 0.72 0.74 0.80 0.91 0.99 1.04 1.06 0.95 0.85 0.80 0.75 0.77 0.84 0.81 0.96 1.09 0.93 0.75 0.66 0.66 0.58 0.54 0.54 0.54 0.54 0.60 0.61 0.63 0.62 0.62 0.64 0.63 0.60 0.57
1.83 1.75 1.52 1.47 1.67 1.87 1.23 0.80 0.65 0.60 0.51 0.27 0.23 0.39 0.58 0.58 0.62 0.80 0.94 0.98 0.99 1.03 0.95 0.95 1.03 1.01 1.00 1.01 1.08 1.19 1.50 1.38 1.00 0.81 0.70 0.65 0.58 0.55 0.59 0.56 0.59 0.65 0.67 0.69 0.72 0.71 0.70 0.71 0.66
1.74 1.88 1.87 1.94 1.93 1.67 1.11 0.91 0.72 0.50 0.44 0.31 0.25 0.32 0.42 0.43 0.54 0.63 0.70 0.71 0.75 0.78 0.82 0.88 0.94 0.96 0.98 0.96 1.13 1.38 1.67 1.73 1.38 1.10 0.95 0.79 0.55 0.58 0.66 0.59 0.69 0.74 0.77 0.80 0.87 0.86 0.80 0.80 0.71
1.70 1.83 1.76 1.59 1.28 1.01 0.87 0.77 0.66 0.59 0.61 0.47 0.38 0.35 0.40 0.44 0.57 0.61 0.61 0.65 0.64 0.60 0.57 0.58 0.62 0.67 0.72 0.77 1.04 1.27 1.33 1.53 1.31 1.28 1.13 0.98 0.92 0.87 0.69 0.64 0.79 0.86 0.87 0.86 0.91 0.96 0.82 0.69 0.56
1.49 1.44 1.24 1.15 0.83 0.62 0.58 0.53 0.46 0.46 0.56 0.49 0.44 0.37 0.42 0.48 0.52 0.54 0.53 0.53 0.54 0.55 0.52 0.45 0.46 0.48 0.54 0.67 0.88 1.10 1.23 1.40 1.41 1.39 1.33 1.32 1.27 0.94 0.78 0.85 0.88 0.90 0.89 0.79 0.84 0.84 0.65 0.52 0.48
1.44 1.15 0.98 0.89 0.62 0.59 0.55 0.45 0.38 0.32 0.34 0.26 0.30 0.31 0.38 0.46 0.46 0.43 0.44 0.45 0.45 0.50 0.56 0.49 0.37 0.37 0.39 0.47 0.66 0.86 1.07 1.26 1.31 1.14 1.06 1.19 1.20 1.01 0.88 1.01 1.09 1.07 1.02 1.01 1.02 0.93 0.77 0.58 0.51
1.39 1.27 0.98 0.81 0.59 0.57 0.48 0.42 0.34 0.25 0.24 0.22 0.25 0.35 0.43 0.53 0.51 0.45 0.40 0.41 0.41 0.47 0.54 0.56 0.48 0.40 0.39 0.44 0.51 0.58 0.87 1.05 1.20 1.25 1.03 1.15 1.19 1.12 0.99 0.93 1.10 1.06 1.05 1.06 1.07 1.03 0.91 0.79 0.64
1.27 1.16 0.86 0.73 0.60 0.55 0.50 0.43 0.37 0.28 0.26 0.25 0.28 0.40 0.47 0.55 0.57 0.52 0.44 0.40 0.37 0.40 0.47 0.52 0.55 0.54 0.50 0.49 0.51 0.51 0.56 0.67 0.79 0.76 0.73 0.92 1.04 1.01 1.01 0.88 0.94 1.00 1.11 1.26 1.25 1.09 1.01 0.91 0.78
0.98 1.02 1.00 0.78 0.65 0.55 0.55 0.58 0.39 0.28 0.30 0.32 0.32 0.35 0.45 0.48 0.49 0.45 0.41 0.37 0.36 0.39 0.42 0.47 0.54 0.61 0.62 0.63 0.71 0.64 0.59 0.64 0.64 0.60 0.61 0.72 0.83 0.85 0.98 0.96 0.92 0.93 1.11 1.28 1.36 1.25 1.17 0.98 0.90
0.97 1.07 1.27 0.95 0.80 0.66 0.74 0.78 0.37 0.29 0.27 0.29 0.29 0.28 0.32 0.35 0.37 0.36 0.37 0.37 0.37 0.38 0.37 0.39 0.43 0.48 0.53 0.60 0.68 0.73 0.73 0.75 0.71 0.74 0.70 0.66 0.79 0.91 1.03 1.07 0.98 0.97 1.13 1.29 1.40 1.46 1.43 1.29 1.17
1.06 1.01 1.00 0.92 0.73 0.61 0.63 0.60 0.33 0.26 0.23 0.24 0.23 0.21 0.24 0.23 0.25 0.26 0.27 0.31 0.35 0.37 0.33 0.31 0.32 0.32 0.35 0.42 0.54 0.65 0.72 0.80 0.87 0.88 0.87 0.84 0.88 0.92 1.06 1.21 1.21 1.19 1.27 1.31 1.32 1.39 1.35 1.35 1.32
0.79 0.70 0.69 0.75 0.57 0.54 0.50 0.38 0.27 0.24 0.20 0.19 0.20 0.20 0.19 0.18 0.16 0.15 0.18 0.25 0.28 0.30 0.31 0.30 0.31 0.30 0.27 0.31 0.45 0.56 0.63 0.71 0.87 0.94 1.01 1.27 1.36 1.14 1.11 1.22 1.24 1.26 1.39 1.40 1.52 1.65 1.50 1.37 1.43
0.56 0.48 0.53 0.55 0.40 0.43 0.38 0.30 0.24 0.19 0.15 0.13 0.15 0.16 0.17 0.16 0.09 0.05 0.06 0.09 0.16 0.16 0.15 0.18 0.24 0.31 0.29 0.26 0.33 0.44 0.53 0.67 0.81 0.97 1.04 1.27 1.38 1.28 1.30 1.30 1.29 1.30 1.34 1.37 1.54 1.83 1.74 1.56 1.47
0.52 0.50 0.48 0.43 0.37 0.37 0.35 0.30 0.22 0.15 0.12 0.10 0.11 0.12 0.14 0.13 0.07 0.06 0.04 0.04 0.06 0.09 0.09 0.12 0.16 0.25 0.32 0.36 0.41 0.53 0.71 0.83 0.93 1.06 1.13 1.24 1.26 1.26 1.19 1.33 1.42 1.37 1.44 1.50 1.65 1.87 1.97 1.78 1.63
0.46 0.51 0.43 0.39 0.39 0.35 0.37 0.37 0.23 0.14 0.12 0.11 0.11 0.13 0.12 0.09 0.07 0.08 0.07 0.06 0.04 0.05 0.07 0.12 0.20 0.33 0.50 0.66 0.88 1.13 1.41 1.53 1.42 1.27 1.34 1.47 1.53 1.49 1.42 1.49 1.62 1.54 1.55 1.60 1.64 1.69 2.03 2.12 1.94
0.49 0.35 0.30 0.32 0.43 0.37 0.29 0.38 0.24 0.16 0.17 0.16 0.14 0.14 0.14 0.12 0.10 0.09 0.08 0.07 0.09 0.12 0.19 0.29 0.41 0.57 0.74 0.95 1.17 1.43 1.66 1.82 1.84 1.86 1.89 1.87 1.82 1.70 1.59 1.59 1.63 1.65 1.70 1.63 1.52 1.65 1.98 2.34 2.31
0.40 0.32 0.29 0.32 0.40 0.32 0.23 0.25 0.21 0.21 0.27 0.29 0.28 0.27 0.26 0.23 0.22 0.21 0.18 0.17 0.19 0.29 0.42 0.53 0.76 0.93 1.07 1.13 1.23 1.45 1.56 1.63 1.74 1.88 1.93 1.93 1.84 1.71 1.56 1.51 1.54 1.61 1.71 1.70 1.73 1.87 2.13 2.36 2.51
0.35 0.38 0.38 0.40 0.45 0.36 0.21 0.20 0.28 0.32 0.39 0.44 0.43 0.38 0.35 0.29 0.26 0.29 0.32 0.32 0.36 0.58 0.81 0.96 1.07 1.16 1.16 1.14 1.16 1.30 1.44 1.52 1.60 1.73 1.79 1.73 1.59 1.54 1.51 1.49 1.45 1.40 1.48 1.58 1.73 1.97 2.08 2.24 2.43
0.35 0.46 0.50 0.50 0.45 0.34 0.17 0.22 0.35 0.32 0.30 0.34 0.38 0.36 0.32 0.24 0.21 0.25 0.34 0.47 0.66 0.91 1.14 1.29 1.28 1.18 1.05 1.03 1.09 1.15 1.30 1.44 1.48 1.49 1.51 1.45 1.38 1.34 1.36 1.37 1.32 1.22 1.21 1.33 1.50 1.71 1.76 1.88 2.06
0.29 0.35 0.44 0.47 0.38 0.27 0.22 0.35 0.43 0.33 0.23 0.19 0.20 0.21 0.23 0.27 0.32 0.33 0.39 0.58 0.86 1.13 1.37 1.64 1.62 1.38 1.16 1.11 1.17 1.19 1.27 1.33 1.31 1.25 1.26 1.26 1.22 1.17 1.11 1.14 1.15 1.11 1.10 1.13 1.23 1.33 1.40 1.50 1.67
0.24 0.26 0.27 0.37 0.30 0.24 0.22 0.31 0.32 0.22 0.16 0.15 0.17 0.21 0.28 0.33 0.41 0.50 0.62 0.72 0.92 1.15 1.48 1.76 1.82 1.62 1.46 1.37 1.31 1.31 1.21 1.12 1.05 0.97 0.96 0.99 1.00 0.94 0.90 0.97 1.06 1.12 1.04 0.98 1.05 1.11 1.15 1.27 1.40
0.20 0.22 0.23 0.37 0.38 0.30 0.24 0.28 0.21 0.13 0.11 0.14 0.22 0.27 0.33 0.40 0.43 0.58 0.84 1.06 1.28 1.24 1.37 1.61 1.54 1.48 1.46 1.47 1.46 1.35 1.20 1.07 1.03 0.95 0.92 0.89 0.94 0.85 0.85 0.88 0.89 0.90 0.88 0.92 1.01 1.10 1.19 1.20 1.25
0.16 0.19 0.20 0.27 0.30 0.35 0.41 0.38 0.23 0.19 0.21 0.27 0.35 0.37 0.41 0.47 0.51 0.65 0.82 0.97 1.16 1.27 1.29 1.33 1.32 1.33 1.29 1.22 1.18 1.06 0.86 0.75 0.76 0.77 0.73 0.68 0.71 0.66 0.68 0.66 0.70 0.81 0.81 0.80 0.90 0.96 0.98 1.08 1.17
0.18 0.22 0.23 0.35 0.38 0.38 0.53 0.56 0.34 0.34 0.39 0.47 0.53 0.56 0.60 0.60 0.63 0.72 0.80 0.95 1.04 1.05 1.10 1.17 1.10 1.09 1.04 0.93 0.84 0.72 0.57 0.51 0.56 0.57 0.52 0.45 0.47 0.44 0.51 0.55 0.54 0.70 0.86 0.88 0.91 0.92 0.89 0.95 1.00

GEFSSGP_prec_meanprecacc_144.txt.gz
Total_Precipitation_Accumulation
1.67 1.50 2.13 3.07 2.99 2.41 2.02 1.55 1.06 0.84 0.57 0.47 0.39 0.40 0.58 0.89 1.17 1.42 1.33 1.14 0.68 0.49 0.43 0.65 1.01 0.93 0.89 0.88 0.81 0.72 0.73 0.68 0.61 0.63 0.58 0.58 0.54 0.47 0.43 0.41 0.40 0.38 0.37 0.37 0.42 0.51 0.57 0.59 0.65
1.28 1.76 2.49 3.33 2.83 2.25 2.10 1.54 1.09 0.76 0.47 0.33 0.25 0.24 0.33 0.38 0.35 0.70 1.26 1.32 0.60 0.39 0.39 0.55 0.93 0.94 0.95 0.95 0.84 0.78 0.77 0.70 0.70 0.71 0.66 0.64 0.58 0.50 0.45 0.43 0.40 0.39 0.40 0.44 0.45 0.52 0.61 0.64 0.66
1.48 2.42 3.03 2.97 2.28 2.21 2.15 1.46 0.89 0.51 0.29 0.23 0.22 0.20 0.25 0.41 0.45 0.78 1.19 0.91 0.53 0.40 0.43 0.70 0.99 0.96 0.95 0.88 0.82 0.87 0.82 0.73 0.73 0.72 0.69 0.69 0.63 0.59 0.49 0.45 0.45 0.44 0.49 0.53 0.52 0.55 0.60 0.66 0.68
1.63 2.57 2.72 2.32 2.16 1.88 1.46 1.02 0.65 0.51 0.34 0.18 0.16 0.23 0.29 0.46 0.58 0.74 0.80 0.65 0.55 0.54 0.49 0.64 0.85 0.91 0.89 0.76 0.77 0.86 0.80 0.75 0.67 0.61 0.63 0.63 0.60 0.59 0.53 0.54 0.56 0.52 0.55 0.60 0.62 0.65 0.67 0.68 0.69
2.06 2.54 2.31 2.00 1.96 1.55 1.08 0.76 0.55 0.55 0.48 0.24 0.15 0.32 0.48 0.61 0.65 0.67 0.67 0.57 0.51 0.50 0.43 0.50 0.75 0.81 0.78 0.74 0.80 0.90 0.83 0.76 0.64 0.58 0.62 0.63 0.61 0.59 0.57 0.60 0.60 0.58 0.56 0.59 0.64 0.68 0.69 0.65 0.67
2.31 2.26 2.12 1.94 1.94 1.55 1.14 0.74 0.55 0.54 0.45 0.29 0.22 0.40 0.60 0.72 0.81 0.79 0.75 0.79 0.75 0.71 0.57 0.55 0.75 0.80 0.77 0.80 0.83 0.90 0.90 0.79 0.66 0.60 0.60 0.58 0.58 0.58 0.59 0.60 0.61 0.60 0.59 0.63 0.64 0.64 0.62 0.57 0.58
2.25 2.13 1.89 1.59 1.75 1.91 1.38 0.82 0.64 0.61 0.51 0.36 0.27 0.47 0.69 0.84 0.84 0.87 0.95 1.01 1.04 1.06 0.95 0.85 0.81 0.76 0.78 0.85 0.82 0.96 1.10 0.94 0.76 0.68 0.67 0.59 0.55 0.54 0.55 0.55 0.61 0.61 0.63 0.62 0.62 0.64 0.63 0.60 0.58
1.86 1.80 1.59 1.57 1.77 2.00 1.34 0.86 0.68 0.63 0.54 0.28 0.24 0.44 0.68 0.67 0.71 0.85 0.97 0.99 0.99 1.03 0.96 0.95 1.03 1.02 1.00 1.01 1.08 1.20 1.51 1.38 1.01 0.81 0.70 0.65 0.58 0.55 0.59 0.56 0.59 0.65 0.68 0.69 0.72 0.71 0.70 0.71 0.66
1.75 1.93 1.95 2.05 2.05 1.81 1.19 1.00 0.77 0.52 0.46 0.32 0.25 0.33 0.45 0.47 0.62 0.71 0.73 0.72 0.75 0.78 0.82 0.88 0.94 0.96 0.98 0.96 1.13 1.38 1.67 1.73 1.38 1.10 0.95 0.79 0.55 0.58 0.66 0.59 0.69 0.74 0.77 0.80 0.87 0.87 0.80 0.80 0.72
1.71 1.87 1.84 1.69 1.39 1.14 0.95 0.87 0.72 0.61 0.63 0.49 0.38 0.35 0.41 0.48 0.66 0.68 0.64 0.66 0.64 0.60 0.57 0.58 0.62 0.67 0.72 0.77 1.04 1.27 1.33 1.53 1.31 1.28 1.13 0.98 0.92 0.87 0.69 0.64 0.79 0.86 0.87 0.86 0.92 0.97 0.82 0.69 0.57
1.51 1.50 1.35 1.27 0.95 0.74 0.69 0.62 0.52 0.50 0.58 0.50 0.45 0.37 0.44 0.52 0.60 0.59 0.55 0.54 0.54 0.55 0.52 0.45 0.46 0.48 0.54 0.67 0.88 1.10 1.23 1.40 1.41 1.39 1.33 1.32 1.27 0.94 0.78 0.85 0.88 0.90 0.90 0.79 0.84 0.84 0.65 0.53 0.49
1.46 1.20 1.07 0.99 0.68 0.65 0.63 0.50 0.43 0.39 0.37 0.27 0.30 0.31 0.38 0.47 0.48 0.46 0.45 0.45 0.45 0.50 0.56 0.49 0.37 0.37 0.39 0.47 0.66 0.86 1.07 1.26 1.31 1.14 1.06 1.19 1.20 1.01 0.88 1.01 1.09 1.07 1.02 1.01 1.02 0.93 0.77 0.59 0.53
1.40 1.31 1.05 0.88 0.65 0.63 0.56 0.47 0.39 0.31 0.28 0.23 0.25 0.36 0.43 0.53 0.52 0.46 0.41 0.41 0.41 0.47 0.54 0.56 0.48 0.40 0.39 0.44 0.51 0.58 0.87 1.05 1.20 1.25 1.03 1.15 1.19 1.12 0.99 0.93 1.10 1.07 1.06 1.07 1.08 1.04 0.92 0.80 0.66
1.29 1.18 0.92 0.78 0.67 0.62 0.56 0.47 0.41 0.34 0.29 0.27 0.30 0.41 0.48 0.55 0.58 0.53 0.45 0.40 0.37 0.40 0.47 0.52 0.55 0.54 0.50 0.49 0.51 0.51 0.56 0.67 0.79 0.76 0.73 0.92 1.04 1.01 1.01 0.88 0.94 1.01 1.11 1.26 1.27 1.10 1.02 0.92 0.80
0.99 1.06 1.06 0.85 0.71 0.60 0.59 0.63 0.44 0.34 0.34 0.34 0.35 0.38 0.47 0.48 0.50 0.47 0.42 0.37 0.36 0.39 0.42 0.47 0.54 0.61 0.62 0.63 0.71 0.64 0.59 0.64 0.64 0.60 0.61 0.72 0.83 0.85 0.98 0.96 0.93 0.94 1.12 1.30 1.37 1.27 1.17 0.99 0.91
1.01 1.13 1.36 1.04 0.88 0.72 0.79 0.84 0.44 0.37 0.36 0.33 0.33 0.32 0.34 0.36 0.39 0.39 0.38 0.38 0.37 0.38 0.37 0.39 0.43 0.48 0.53 0.60 0.68 0.73 0.73 0.75 0.71 0.74 0.70 0.66 0.80 0.92 1.04 1.07 0.99 0.97 1.14 1.31 1.42 1.47 1.44 1.29 1.19
1.12 1.08 1.07 1.00 0.84 0.69 0.69 0.64 0.39 0.35 0.33 0.30 0.27 0.27 0.26 0.24 0.26 0.28 0.29 0.32 0.35 0.37 0.33 0.31 0.32 0.32 0.35 0.42 0.54 0.65 0.72 0.80 0.87 0.88 0.87 0.85 0.89 0.92 1.06 1.21 1.22 1.20 1.28 1.33 1.33 1.40 1.36 1.36 1.34
0.84 0.76 0.75 0.82 0.64 0.62 0.58 0.44 0.31 0.31 0.31 0.26 0.26 0.24 0.22 0.19 0.17 0.17 0.20 0.25 0.28 0.30 0.31 0.30 0.31 0.30 0.27 0.31 0.45 0.56 0.63 0.71 0.87 0.94 1.01 1.27 1.36 1.14 1.11 1.22 1.24 1.27 1.40 1.41 1.52 1.65 1.52 1.40 1.45
0.59 0.51 0.57 0.61 0.44 0.51 0.49 0.39 0.31 0.26 0.23 0.21 0.22 0.21 0.21 0.18 0.10 0.07 0.07 0.09 0.16 0.16 0.15 0.18 0.24 0.31 0.29 0.26 0.33 0.44 0.53 0.67 0.81 0.97 1.04 1.28 1.38 1.28 1.30 1.31 1.30 1.30 1.34 1.38 1.55 1.84 1.76 1.59 1.49
0.54 0.53 0.53 0.50 0.45 0.47 0.50 0.42 0.32 0.22 0.18 0.17 0.17 0.15 0.17 0.16 0.09 0.07 0.05 0.04 0.06 0.09 0.09 0.12 0.16 0.25 0.32 0.36 0.41 0.53 0.71 0.83 0.93 1.06 1.13 1.24 1.26 1.26 1.19 1.34 1.42 1.37 1.44 1.50 1.65 1.88 1.99 1.80 1.64
0.48 0.54 0.47 0.45 0.51 0.46 0.49 0.52 0.37 0.23 0.20 0.19 0.17 0.16 0.15 0.11 0.10 0.10 0.07 0.06 0.04 0.05 0.07 0.12 0.20 0.33 0.50 0.66 0.88 1.13 1.41 1.53 1.42 1.27 1.34 1.47 1.54 1.50 1.42 1.49 1.63 1.54 1.55 1.60 1.64 1.69 2.04 2.13 1.96
0.54 0.37 0.33 0.35 0.52 0.51 0.41 0.53 0.38 0.25 0.25 0.26 0.21 0.18 0.17 0.15 0.12 0.11 0.08 0.07 0.09 0.12 0.19 0.29 0.41 0.57 0.74 0.95 1.17 1.43 1.66 1.82 1.84 1.86 1.89 1.88 1.83 1.71 1.59 1.59 1.63 1.65 1.70 1.63 1.52 1.65 1.98 2.35 2.34
0.44 0.36 0.32 0.35 0.45 0.42 0.37 0.36 0.29 0.27 0.34 0.37 0.34 0.30 0.28 0.26 0.24 0.22 0.18 0.17 0.19 0.29 0.42 0.53 0.76 0.93 1.07 1.13 1.23 1.45 1.56 1.63 1.74 1.88 1.93 1.93 1.85 1.72 1.58 1.51 1.55 1.61 1.71 1.70 1.73 1.87 2.13 2.36 2.52
0.37 0.41 0.41 0.44 0.48 0.41 0.29 0.27 0.32 0.34 0.41 0.48 0.46 0.39 0.36 0.31 0.28 0.30 0.32 0.33 0.36 0.58 0.81 0.96 1.07 1.16 1.16 1.14 1.16 1.30 1.44 1.52 1.60 1.73 1.79 1.73 1.59 1.55 1.51 1.49 1.45 1.40 1.48 1.58 1.73 1.97 2.08 2.25 2.44
0.36 0.49 0.54 0.54 0.48 0.36 0.20 0.25 0.36 0.33 0.31 0.36 0.40 0.37 0.33 0.26 0.22 0.26 0.35 0.47 0.66 0.91 1.14 1.29 1.28 1.18 1.05 1.03 1.09 1.15 1.30 1.44 1.48 1.49 1.51 1.45 1.38 1.34 1.36 1.37 1.32 1.22 1.21 1.33 1.50 1.71 1.76 1.88 2.07
0.30 0.37 0.48 0.51 0.41 0.29 0.24 0.37 0.44 0.33 0.24 0.20 0.21 0.23 0.25 0.28 0.33 0.33 0.40 0.58 0.86 1.13 1.37 1.64 1.62 1.38 1.16 1.11 1.17 1.19 1.27 1.33 1.31 1.25 1.26 1.26 1.22 1.17 1.11 1.14 1.15 1.12 1.10 1.13 1.23 1.33 1.40 1.51 1.68
0.26 0.28 0.29 0.40 0.33 0.26 0.23 0.33 0.33 0.23 0.17 0.16 0.18 0.22 0.30 0.34 0.42 0.51 0.62 0.72 0.92 1.15 1.48 1.76 1.82 1.62 1.46 1.37 1.31 1.31 1.21 1.12 1.05 0.97 0.96 0.99 1.00 0.94 0.90 0.97 1.06 1.12 1.05 0.99 1.06 1.12 1.16 1.29 1.42
0.21 0.23 0.24 0.40 0.42 0.34 0.27 0.31 0.24 0.16 0.13 0.16 0.25 0.30 0.37 0.42 0.44 0.59 0.85 1.06 1.28 1.24 1.37 1.61 1.54 1.48 1.46 1.47 1.46 1.35 1.20 1.07 1.03 0.95 0.92 0.89 0.94 0.85 0.85 0.88 0.89 0.90 0.89 0.92 1.01 1.10 1.19 1.21 1.26
0.17 0.20 0.22 0.30 0.33 0.39 0.44 0.41 0.27 0.22 0.23 0.29 0.37 0.40 0.44 0.51 0.53 0.66 0.83 0.98 1.16 1.27 1.29 1.33 1.32 1.33 1.29 1.23 1.18 1.06 0.86 0.75 0.76 0.77 0.73 0.68 0.71 0.66 0.68 0.66 0.70 0.81 0.81 0.80 0.90 0.96 0.99 1.08 1.18
0.20 0.23 0.24 0.37 0.40 0.41 0.57 0.61 0.38 0.36 0.41 0.49 0.56 0.60 0.64 0.63 0.65 0.74 0.81 0.96 1.04 1.05 1.10 1.17 1.10 1.09 1.05 0.94 0.84 0.72 0.57 0.51 0.56 0.57 0.52 0.45 0.47 0.44 0.51 0.55 0.54 0.70 0.86 0.88 0.91 0.92 0.89 0.95 1.01

GEFSSGP_prec_meanprecacc_150.txt.gz
Total_Precipitation_Accumulation
1.69 1.54 2.17 3.13 3.04 2.45 2.09 1.66 1.17 0.92 0.65 0.57 0.49 0.54 0.71 0.97 1.20 1.44 1.35 1.18 0.71 0.51 0.46 0.73 1.16 1.08 1.01 0.97 0.91 0.82 0.80 0.74 0.68 0.69 0.63 0.63 0.59 0.53 0.49 0.47 0.45 0.43 0.41 0.42 0.46 0.54 0.60 0.62 0.67
1.31 1.81 2.54 3.37 2.86 2.29 2.15 1.62 1.20 0.85 0.53 0.39 0.33 0.33 0.39 0.42 0.37 0.73 1.32 1.37 0.64 0.40 0.42 0.62 1.04 1.05 1.05 1.04 0.91 0.83 0.80 0.74 0.73 0.74 0.69 0.69 0.63 0.55 0.50 0.49 0.45 0.44 0.45 0.49 0.48 0.54 0.63 0.66 0.68
1.49 2.45 3.07 2.99 2.31 2.24 2.19 1.52 0.97 0.57 0.34 0.28 0.29 0.28 0.30 0.45 0.48 0.84 1.27 0.96 0.56 0.42 0.48 0.78 1.08 1.06 1.04 0.96 0.88 0.91 0.84 0.75 0.75 0.74 0.71 0.72 0.67 0.63 0.53 0.51 0.50 0.49 0.54 0.57 0.54 0.58 0.63 0.68 0.70
1.66 2.60 2.74 2.34 2.19 1.90 1.50 1.08 0.72 0.58 0.39 0.22 0.19 0.28 0.32 0.50 0.63 0.79 0.86 0.69 0.57 0.56 0.52 0.71 0.94 0.99 0.95 0.80 0.79 0.88 0.82 0.77 0.69 0.63 0.65 0.66 0.64 0.63 0.57 0.58 0.59 0.56 0.58 0.62 0.64 0.69 0.71 0.71 0.72
2.09 2.56 2.33 2.01 1.97 1.58 1.12 0.80 0.60 0.60 0.53 0.27 0.17 0.35 0.51 0.67 0.71 0.70 0.69 0.58 0.53 0.54 0.46 0.54 0.82 0.86 0.82 0.76 0.80 0.90 0.84 0.77 0.66 0.60 0.66 0.68 0.65 0.63 0.61 0.63 0.62 0.61 0.58 0.61 0.65 0.70 0.71 0.68 0.69
2.33 2.28 2.14 1.94 1.95 1.59 1.19 0.79 0.59 0.57 0.47 0.31 0.24 0.42 0.63 0.76 0.85 0.82 0.77 0.81 0.78 0.73 0.59 0.57 0.79 0.83 0.80 0.81 0.84 0.91 0.92 0.82 0.69 0.63 0.63 0.61 0.61 0.60 0.61 0.61 0.62 0.62 0.60 0.64 0.65 0.66 0.64 0.59 0.60
2.26 2.14 1.90 1.60 1.76 1.94 1.43 0.86 0.68 0.65 0.53 0.37 0.28 0.49 0.71 0.88 0.88 0.90 0.99 1.04 1.07 1.07 0.95 0.86 0.82 0.78 0.80 0.87 0.84 0.98 1.13 0.97 0.79 0.70 0.68 0.60 0.56 0.55 0.55 0.56 0.61 0.62 0.64 0.63 0.62 0.65 0.64 0.61 0.59
1.87 1.81 1.60 1.58 1.79 2.04 1.39 0.91 0.73 0.66 0.55 0.29 0.25 0.47 0.72 0.71 0.74 0.90 1.03 1.03 1.01 1.05 0.97 0.95 1.04 1.02 1.00 1.02 1.09 1.21 1.52 1.40 1.02 0.82 0.70 0.66 0.58 0.56 0.59 0.57 0.59 0.66 0.69 0.69 0.73 0.72 0.71 0.72 0.67
1.75 1.93 1.96 2.07 2.07 1.83 1.26 1.07 0.83 0.55 0.47 0.33 0.26 0.37 0.50 0.49 0.64 0.76 0.85 0.80 0.77 0.78 0.83 0.88 0.94 0.96 0.98 0.96 1.13 1.39 1.67 1.73 1.39 1.11 0.96 0.79 0.55 0.58 0.66 0.59 0.70 0.76 0.78 0.81 0.87 0.87 0.81 0.81 0.72
1.72 1.88 1.85 1.71 1.41 1.16 1.01 0.94 0.78 0.64 0.64 0.49 0.39 0.36 0.43 0.50 0.68 0.74 0.72 0.73 0.66 0.60 0.57 0.58 0.62 0.67 0.72 0.77 1.04 1.27 1.33 1.53 1.31 1.28 1.13 0.98 0.92 0.87 0.69 0.64 0.80 0.88 0.88 0.87 0.92 0.98 0.83 0.69 0.57
1.52 1.51 1.37 1.28 0.97 0.77 0.75 0.67 0.58 0.54 0.60 0.51 0.45 0.37 0.45 0.53 0.63 0.66 0.61 0.58 0.57 0.56 0.52 0.45 0.46 0.48 0.54 0.67 0.88 1.10 1.23 1.40 1.41 1.39 1.33 1.32 1.27 0.94 0.78 0.85 0.89 0.90 0.90 0.79 0.84 0.84 0.65 0.53 0.50
1.48 1.22 1.09 1.01 0.71 0.68 0.68 0.55 0.48 0.44 0.40 0.28 0.30 0.31 0.39 0.49 0.51 0.51 0.49 0.48 0.47 0.50 0.56 0.49 0.37 0.37 0.39 0.47 0.66 0.86 1.07 1.26 1.31 1.14 1.06 1.19 1.20 1.01 0.88 1.01 1.09 1.07 1.02 1.01 1.02 0.93 0.77 0.59 0.54
1.41 1.33 1.08 0.92 0.71 0.69 0.62 0.53 0.43 0.35 0.32 0.25 0.26 0.37 0.45 0.55 0.54 0.48 0.43 0.43 0.41 0.47 0.54 0.56 0.48 0.40 0.39 0.44 0.51 0.58 0.87 1.05 1.20 1.25 1.03 1.15 1.19 1.12 0.99 0.93 1.10 1.07 1.06 1.07 1.08 1.04 0.92 0.81 0.67
1.30 1.20 0.96 0.85 0.77 0.69 0.62 0.52 0.47 0.38 0.33 0.29 0.31 0.44 0.49 0.56 0.58 0.53 0.46 0.41 0.37 0.40 0.47 0.52 0.55 0.54 0.50 0.49 0.51 0.51 0.56 0.67 0.79 0.76 0.73 0.92 1.04 1.01 1.01 0.88 0.94 1.01 1.11 1.27 1.27 1.10 1.02 0.93 0.82
1.01 1.08 1.10 0.92 0.79 0.65 0.64 0.68 0.49 0.42 0.40 0.37 0.37 0.41 0.49 0.50 0.52 0.49 0.43 0.38 0.36 0.39 0.42 0.47 0.54 0.61 0.62 0.63 0.71 0.64 0.59 0.64 0.64 0.60 0.61 0.72 0.83 0.85 0.98 0.96 0.93 0.94 1.12 1.30 1.38 1.27 1.18 1.00 0.93
1.03 1.15 1.39 1.09 0.95 0.78 0.83 0.88 0.47 0.42 0.45 0.39 0.36 0.35 0.37 0.38 0.40 0.42 0.40 0.38 0.37 0.38 0.37 0.39 0.43 0.48 0.53 0.60 0.68 0.73 0.73 0.75 0.71 0.74 0.70 0.66 0.80 0.92 1.04 1.07 0.99 0.98 1.15 1.31 1.42 1.48 1.45 1.30 1.20
1.15 1.10 1.09 1.04 0.91 0.78 0.76 0.68 0.42 0.40 0.44 0.41 0.34 0.31 0.30 0.26 0.28 0.32 0.31 0.32 0.36 0.37 0.33 0.31 0.32 0.32 0.35 0.42 0.54 0.65 0.72 0.80 0.87 0.88 0.87 0.85 0.89 0.92 1.06 1.21 1.22 1.20 1.28 1.33 1.34 1.40 1.37 1.37 1.35
0.85 0.79 0.78 0.86 0.70 0.69 0.65 0.47 0.35 0.38 0.41 0.38 0.35 0.30 0.27 0.22 0.19 0.19 0.22 0.25 0.28 0.30 0.31 0.30 0.31 0.30 0.27 0.31 0.45 0.56 0.63 0.71 0.87 0.94 1.01 1.27 1.36 1.15 1.11 1.22 1.24 1.27 1.40 1.41 1.53 1.66 1.53 1.41 1.47
0.59 0.53 0.60 0.63 0.49 0.57 0.55 0.43 0.35 0.32 0.31 0.30 0.30 0.26 0.24 0.21 0.13 0.09 0.08 0.10 0.16 0.16 0.15 0.18 0.24 0.31 0.29 0.26 0.33 0.44 0.53 0.67 0.81 0.97 1.04 1.28 1.38 1.28 1.30 1.31 1.30 1.30 1.35 1.38 1.55 1.84 1.77 1.60 1.51
0.55 0.55 0.55 0.52 0.48 0.52 0.56 0.48 0.37 0.27 0.24 0.25 0.23 0.19 0.18 0.17 0.11 0.09 0.05 0.04 0.06 0.09 0.09 0.12 0.16 0.25 0.32 0.36 0.41 0.53 0.71 0.83 0.93 1.06 1.13 1.25 1.27 1.26 1.19 1.34 1.43 1.37 1.45 1.51 1.66 1.88 1.99 1.81 1.65
0.50 0.56 0.49 0.48 0.55 0.49 0.53 0.56 0.43 0.29 0.26 0.27 0.22 0.18 0.16 0.12 0.11 0.11 0.08 0.06 0.04 0.05 0.07 0.12 0.20 0.33 0.50 0.66 0.88 1.13 1.41 1.53 1.42 1.27 1.34 1.47 1.55 1.51 1.42 1.49 1.63 1.54 1.56 1.60 1.65 1.69 2.05 2.14 1.97
0.56 0.39 0.35 0.38 0.56 0.55 0.46 0.57 0.41 0.30 0.30 0.32 0.27 0.20 0.17 0.15 0.14 0.12 0.09 0.08 0.09 0.12 0.19 0.29 0.41 0.57 0.74 0.95 1.17 1.43 1.66 1.82 1.84 1.86 1.90 1.88 1.83 1.71 1.60 1.59 1.63 1.65 1.70 1.63 1.53 1.66 1.98 2.35 2.34
0.45 0.38 0.35 0.38 0.48 0.45 0.40 0.40 0.32 0.30 0.37 0.41 0.39 0.33 0.28 0.26 0.25 0.23 0.19 0.17 0.19 0.29 0.42 0.53 0.76 0.93 1.07 1.13 1.23 1.45 1.56 1.63 1.74 1.88 1.93 1.93 1.85 1.72 1.58 1.51 1.55 1.61 1.71 1.70 1.74 1.88 2.14 2.37 2.53
0.38 0.43 0.44 0.48 0.51 0.44 0.31 0.29 0.34 0.35 0.42 0.51 0.48 0.42 0.37 0.31 0.29 0.31 0.32 0.33 0.36 0.58 0.81 0.96 1.07 1.16 1.16 1.14 1.16 1.30 1.44 1.52 1.60 1.73 1.79 1.73 1.59 1.55 1.52 1.49 1.45 1.40 1.48 1.58 1.74 1.97 2.08 2.25 2.44
0.37 0.50 0.56 0.57 0.51 0.37 0.21 0.26 0.36 0.33 0.31 0.37 0.40 0.38 0.34 0.27 0.23 0.27 0.36 0.47 0.66 0.91 1.14 1.29 1.29 1.18 1.05 1.03 1.09 1.15 1.30 1.44 1.48 1.49 1.51 1.45 1.38 1.34 1.36 1.37 1.32 1.22 1.21 1.33 1.50 1.71 1.76 1.88 2.07
0.31 0.38 0.48 0.51 0.42 0.30 0.24 0.37 0.44 0.33 0.24 0.21 0.21 0.23 0.25 0.29 0.34 0.35 0.40 0.58 0.86 1.13 1.37 1.64 1.62 1.38 1.16 1.11 1.17 1.19 1.27 1.33 1.31 1.25 1.26 1.26 1.22 1.17 1.11 1.14 1.15 1.12 1.10 1.13 1.23 1.33 1.41 1.51 1.68
0.26 0.28 0.29 0.41 0.34 0.26 0.23 0.33 0.33 0.23 0.18 0.16 0.19 0.23 0.30 0.35 0.44 0.53 0.63 0.72 0.92 1.15 1.48 1.76 1.82 1.62 1.46 1.37 1.31 1.31 1.21 1.12 1.05 0.97 0.96 1.00 1.01 0.94 0.90 0.97 1.06 1.12 1.05 0.99 1.06 1.12 1.17 1.30 1.44
0.22 0.24 0.25 0.41 0.43 0.34 0.27 0.31 0.24 0.16 0.13 0.16 0.26 0.31 0.37 0.43 0.46 0.60 0.86 1.07 1.28 1.24 1.37 1.61 1.54 1.48 1.46 1.47 1.46 1.35 1.20 1.07 1.03 0.95 0.92 0.89 0.94 0.85 0.85 0.88 0.89 0.90 0.89 0.92 1.01 1.11 1.20 1.23 1.28
0.18 0.21 0.23 0.31 0.33 0.40 0.45 0.42 0.27 0.22 0.23 0.29 0.38 0.40 0.45 0.52 0.55 0.68 0.84 0.99 1.17 1.27 1.29 1.33 1.32 1.33 1.29 1.23 1.18 1.06 0.86 0.75 0.76 0.77 0.73 0.68 0.71 0.66 0.68 0.66 0.70 0.81 0.81 0.81 0.90 0.97 1.00 1.10 1.20
0.20 0.23 0.25 0.38 0.41 0.42 0.57 0.61 0.38 0.37 0.41 0.50 0.57 0.61 0.65 0.64 0.67 0.76 0.83 0.96 1.04 1.05 1.10 1.17 1.10 1.09 1.05 0.94 0.84 0.72 0.57 0.51 0.56 0.57 0.52 0.45 0.47 0.44 0.51 0.55 0.54 0.70 0.86 0.88 0.92 0.94 0.90 0.96 1.02